Wetterdaten: Montag, 07.10.2013
Datum Zeit Temp. Aussen +5cm Feuchte Auss Luftdruck Regen Sonnenschein Regendauer UV Solar Windben
07.10.2013 00:00 11,2 C 10,0 C 97 % 1026,1 hPa 0,0 l/m 0 min 0 min 0,0 UV-I 0 W/m 0,0 km/h (0 Bft)
07.10.2013 00:02 11,2 C 10,0 C 97 % 1026,2 hPa 0,0 l/m 0 min 0 min 0,0 UV-I 0 W/m 0,0 km/h (0 Bft)
07.10.2013 00:06 11,2 C 9,4 C 97 % 1026,2 hPa 0,0 l/m 0 min 0 min 0,0 UV-I 0 W/m 0,0 km/h (0 Bft)
07.10.2013 00:08 11,2 C 9,4 C 97 % 1026,2 hPa 0,0 l/m 0 min 0 min 0,0 UV-I 0 W/m 0,0 km/h (0 Bft)
07.10.2013 00:10 11,2 C 9,4 C 97 % 1026,2 hPa 0,0 l/m 0 min 0 min 0,0 UV-I 0 W/m 0,0 km/h (0 Bft)
07.10.2013 00:12 11,2 C 9,4 C 97 % 1026,2 hPa 0,0 l/m 0 min 0 min 0,0 UV-I 0 W/m 0,0 km/h (0 Bft)
07.10.2013 00:14 11,2 C 9,4 C 97 % 1026,2 hPa 0,0 l/m 0 min 0 min 0,0 UV-I 0 W/m 0,0 km/h (0 Bft)
07.10.2013 00:16 11,2 C 9,4 C 97 % 1026,2 hPa 0,0 l/m 0 min 0 min 0,0 UV-I 0 W/m 0,0 km/h (0 Bft)
07.10.2013 00:18 11,1 C 9,4 C 97 % 1026,2 hPa 0,0 l/m 0 min 0 min 0,0 UV-I 0 W/m 0,0 km/h (0 Bft)
07.10.2013 00:20 11,1 C 10,0 C 97 % 1026,2 hPa 0,0 l/m 0 min 0 min 0,0 UV-I 0 W/m 0,0 km/h (0 Bft)
07.10.2013 00:22 11,1 C 10,0 C 97 % 1026,2 hPa 0,0 l/m 0 min 0 min 0,0 UV-I 0 W/m 0,0 km/h (0 Bft)
07.10.2013 00:24 11,1 C 9,4 C 97 % 1026,2 hPa 0,0 l/m 0 min 0 min 0,0 UV-I 0 W/m 0,0 km/h (0 Bft)
07.10.2013 00:26 11,1 C 9,4 C 97 % 1026,1 hPa 0,0 l/m 0 min 0 min 0,0 UV-I 0 W/m 0,0 km/h (0 Bft)
07.10.2013 00:28 11,1 C 9,4 C 97 % 1026,1 hPa 0,0 l/m 0 min 0 min 0,0 UV-I 0 W/m 0,0 km/h (0 Bft)
07.10.2013 00:30 11,1 C 9,4 C 97 % 1026,1 hPa 0,0 l/m 0 min 0 min 0,0 UV-I 0 W/m 0,0 km/h (0 Bft)
07.10.2013 00:32 11,0 C 9,4 C 97 % 1026,1 hPa 0,0 l/m 0 min 0 min 0,0 UV-I 0 W/m 0,0 km/h (0 Bft)
07.10.2013 00:34 11,0 C 9,4 C 97 % 1026,1 hPa 0,0 l/m 0 min 0 min 0,0 UV-I 0 W/m 0,0 km/h (0 Bft)
07.10.2013 00:36 11,0 C 9,4 C 97 % 1026,0 hPa 0,0 l/m 0 min 0 min 0,0 UV-I 0 W/m 0,0 km/h (0 Bft)
07.10.2013 00:38 11,0 C 9,4 C 97 % 1026,1 hPa 0,0 l/m 0 min 0 min 0,0 UV-I 0 W/m 0,0 km/h (0 Bft)
07.10.2013 00:40 11,0 C 9,4 C 97 % 1026,1 hPa 0,0 l/m 0 min 0 min 0,0 UV-I 0 W/m 0,0 km/h (0 Bft)
07.10.2013 00:42 11,0 C 9,4 C 97 % 1026,1 hPa 0,0 l/m 0 min 0 min 0,0 UV-I 0 W/m 0,0 km/h (0 Bft)
07.10.2013 00:44 10,9 C 9,4 C 97 % 1026,1 hPa 0,0 l/m 0 min 0 min 0,0 UV-I 0 W/m 0,0 km/h (0 Bft)
07.10.2013 00:46 10,9 C 9,4 C 97 % 1026,1 hPa 0,0 l/m 0 min 0 min 0,0 UV-I 0 W/m 0,0 km/h (0 Bft)
07.10.2013 00:48 10,9 C 9,4 C 97 % 1026,1 hPa 0,0 l/m 0 min 0 min 0,0 UV-I 0 W/m 0,0 km/h (0 Bft)
07.10.2013 00:50 10,8 C 9,4 C 97 % 1026,1 hPa 0,0 l/m 0 min 0 min 0,0 UV-I 0 W/m 0,0 km/h (0 Bft)
07.10.2013 00:52 10,8 C 9,4 C 97 % 1026,1 hPa 0,0 l/m 0 min 0 min 0,0 UV-I 0 W/m 0,0 km/h (0 Bft)
07.10.2013 00:54 10,7 C 9,4 C 97 % 1026,1 hPa 0,0 l/m 0 min 0 min 0,0 UV-I 0 W/m 0,0 km/h (0 Bft)
07.10.2013 00:56 10,7 C 9,4 C 97 % 1026,1 hPa 0,0 l/m 0 min 0 min 0,0 UV-I 0 W/m 0,0 km/h (0 Bft)
07.10.2013 00:58 10,7 C 9,4 C 97 % 1026,1 hPa 0,0 l/m 0 min 0 min 0,0 UV-I 0 W/m 0,0 km/h (0 Bft)
07.10.2013 01:00 10,7 C 8,9 C 97 % 1026,1 hPa 0,0 l/m 0 min 0 min 0,0 UV-I 0 W/m 0,0 km/h (0 Bft)
07.10.2013 01:02 10,6 C 8,9 C 97 % 1026,1 hPa 0,0 l/m 0 min 0 min 0,0 UV-I 0 W/m 0,0 km/h (0 Bft)
07.10.2013 01:06 10,6 C 8,9 C 97 % 1026,1 hPa 0,0 l/m 0 min 0 min 0,0 UV-I 0 W/m 0,0 km/h (0 Bft)
07.10.2013 01:08 10,6 C 8,9 C 97 % 1026,2 hPa 0,0 l/m 0 min 0 min 0,0 UV-I 0 W/m 0,0 km/h (0 Bft)
07.10.2013 01:10 10,4 C 8,9 C 97 % 1026,2 hPa 0,0 l/m 0 min 0 min 0,0 UV-I 0 W/m 0,0 km/h (0 Bft)
07.10.2013 01:12 10,4 C 8,9 C 97 % 1026,1 hPa 0,0 l/m 0 min 0 min 0,0 UV-I 0 W/m 0,0 km/h (0 Bft)
07.10.2013 01:14 10,4 C 8,9 C 97 % 1026,1 hPa 0,0 l/m 0 min 0 min 0,0 UV-I 0 W/m 0,0 km/h (0 Bft)
07.10.2013 01:16 10,4 C 8,9 C 97 % 1026,1 hPa 0,0 l/m 0 min 0 min 0,0 UV-I 0 W/m 0,0 km/h (0 Bft)
07.10.2013 01:18 10,4 C 8,9 C 97 % 1026,2 hPa 0,0 l/m 0 min 0 min 0,0 UV-I 0 W/m 0,0 km/h (0 Bft)
07.10.2013 01:20 10,3 C 8,9 C 97 % 1026,2 hPa 0,0 l/m 0 min 0 min 0,0 UV-I 0 W/m 0,0 km/h (0 Bft)
07.10.2013 01:22 10,2 C 8,9 C 97 % 1026,1 hPa 0,0 l/m 0 min 0 min 0,0 UV-I 0 W/m 0,0 km/h (0 Bft)
07.10.2013 01:24 10,1 C 8,9 C 97 % 1026,2 hPa 0,0 l/m 0 min 0 min 0,0 UV-I 0 W/m 0,0 km/h (0 Bft)
07.10.2013 01:26 10,1 C 8,3 C 97 % 1026,3 hPa 0,0 l/m 0 min 0 min 0,0 UV-I 0 W/m 0,0 km/h (0 Bft)
07.10.2013 01:28 10,0 C 8,3 C 97 % 1026,2 hPa 0,0 l/m 0 min 0 min 0,0 UV-I 0 W/m 0,0 km/h (0 Bft)
07.10.2013 01:30 10,0 C 8,3 C 97 % 1026,2 hPa 0,0 l/m 0 min 0 min 0,0 UV-I 0 W/m 0,0 km/h (0 Bft)
07.10.2013 01:32 9,9 C 8,3 C 97 % 1026,2 hPa 0,0 l/m 0 min 0 min 0,0 UV-I 0 W/m 0,0 km/h (0 Bft)
07.10.2013 01:34 9,9 C 8,3 C 97 % 1026,1 hPa 0,0 l/m 0 min 0 min 0,0 UV-I 0 W/m 0,0 km/h (0 Bft)
07.10.2013 01:36 9,9 C 8,3 C 97 % 1026,1 hPa 0,0 l/m 0 min 0 min 0,0 UV-I 0 W/m 0,0 km/h (0 Bft)
07.10.2013 01:38 9,9 C 8,3 C 97 % 1026,2 hPa 0,0 l/m 0 min 0 min 0,0 UV-I 0 W/m 0,0 km/h (0 Bft)
07.10.2013 01:40 9,8 C 8,3 C 97 % 1026,2 hPa 0,0 l/m 0 min 0 min 0,0 UV-I 0 W/m 0,0 km/h (0 Bft)
07.10.2013 01:42 9,8 C 8,3 C 97 % 1026,2 hPa 0,0 l/m 0 min 0 min 0,0 UV-I 0 W/m 0,0 km/h (0 Bft)
07.10.2013 01:44 9,8 C 8,3 C 97 % 1026,2 hPa 0,0 l/m 0 min 0 min 0,0 UV-I 0 W/m 0,0 km/h (0 Bft)
07.10.2013 01:46 9,8 C 8,9 C 97 % 1026,2 hPa 0,0 l/m 0 min 0 min 0,0 UV-I 0 W/m 0,0 km/h (0 Bft)
07.10.2013 01:48 9,9 C 8,9 C 97 % 1026,1 hPa 0,0 l/m 0 min 0 min 0,0 UV-I 0 W/m 0,0 km/h (0 Bft)
07.10.2013 01:50 9,9 C 8,9 C 97 % 1026,1 hPa 0,0 l/m 0 min 0 min 0,0 UV-I 0 W/m 0,0 km/h (0 Bft)
07.10.2013 01:52 9,9 C 8,9 C 97 % 1026,2 hPa 0,0 l/m 0 min 0 min 0,0 UV-I 0 W/m 0,0 km/h (0 Bft)
07.10.2013 01:54 10,0 C 8,9 C 97 % 1026,2 hPa 0,0 l/m 0 min 0 min 0,0 UV-I 0 W/m 0,0 km/h (0 Bft)
07.10.2013 01:56 10,1 C 8,9 C 97 % 1026,2 hPa 0,0 l/m 0 min 0 min 0,0 UV-I 0 W/m 0,0 km/h (0 Bft)
07.10.2013 01:58 10,1 C 8,9 C 97 % 1026,2 hPa 0,0 l/m 0 min 0 min 0,0 UV-I 0 W/m 0,0 km/h (0 Bft)
07.10.2013 02:00 10,1 C 8,9 C 97 % 1026,3 hPa 0,0 l/m 0 min 0 min 0,0 UV-I 0 W/m 0,0 km/h (0 Bft)
07.10.2013 02:02 10,2 C 8,9 C 98 % 1026,2 hPa 0,0 l/m 0 min 0 min 0,0 UV-I 0 W/m 0,0 km/h (0 Bft)
07.10.2013 02:06 10,3 C 9,4 C 98 % 1026,2 hPa 0,0 l/m 0 min 0 min 0,0 UV-I 0 W/m 0,0 km/h (0 Bft)
07.10.2013 02:08 10,3 C 9,4 C 98 % 1026,2 hPa 0,0 l/m 0 min 0 min 0,0 UV-I 0 W/m 0,0 km/h (0 Bft)
07.10.2013 02:10 10,4 C 9,4 C 98 % 1026,2 hPa 0,0 l/m 0 min 0 min 0,0 UV-I 0 W/m 0,0 km/h (0 Bft)
07.10.2013 02:12 10,4 C 9,4 C 98 % 1026,2 hPa 0,0 l/m 0 min 0 min 0,0 UV-I 0 W/m 0,0 km/h (0 Bft)
07.10.2013 02:14 10,4 C 9,4 C 98 % 1026,2 hPa 0,0 l/m 0 min 0 min 0,0 UV-I 0 W/m 0,0 km/h (0 Bft)
07.10.2013 02:16 10,4 C 9,4 C 98 % 1026,3 hPa 0,0 l/m 0 min 0 min 0,0 UV-I 0 W/m 0,0 km/h (0 Bft)
07.10.2013 02:18 10,4 C 9,4 C 98 % 1026,2 hPa 0,0 l/m 0 min 0 min 0,0 UV-I 0 W/m 0,0 km/h (0 Bft)
07.10.2013 02:20 10,5 C 9,4 C 98 % 1026,3 hPa 0,0 l/m 0 min 0 min 0,0 UV-I 0 W/m 0,0 km/h (0 Bft)
07.10.2013 02:22 10,5 C 9,4 C 98 % 1026,3 hPa 0,0 l/m 0 min 0 min 0,0 UV-I 0 W/m 0,0 km/h (0 Bft)
07.10.2013 02:24 10,5 C 9,4 C 98 % 1026,2 hPa 0,0 l/m 0 min 0 min 0,0 UV-I 0 W/m 0,0 km/h (0 Bft)
07.10.2013 02:26 10,6 C 9,4 C 98 % 1026,2 hPa 0,0 l/m 0 min 0 min 0,0 UV-I 0 W/m 0,0 km/h (0 Bft)
07.10.2013 02:28 10,6 C 9,4 C 98 % 1026,2 hPa 0,0 l/m 0 min 0 min 0,0 UV-I 0 W/m 0,0 km/h (0 Bft)
07.10.2013 02:30 10,6 C 9,4 C 98 % 1026,2 hPa 0,0 l/m 0 min 0 min 0,0 UV-I 0 W/m 0,0 km/h (0 Bft)
07.10.2013 02:32 10,6 C 9,4 C 98 % 1026,2 hPa 0,0 l/m 0 min 0 min 0,0 UV-I 0 W/m 0,0 km/h (0 Bft)
07.10.2013 02:34 10,6 C 10,0 C 98 % 1026,3 hPa 0,0 l/m 0 min 0 min 0,0 UV-I 0 W/m 0,0 km/h (0 Bft)
07.10.2013 02:36 10,6 C 10,0 C 98 % 1026,3 hPa 0,0 l/m 0 min 0 min 0,0 UV-I 0 W/m 0,0 km/h (0 Bft)
07.10.2013 02:38 10,6 C 9,4 C 98 % 1026,3 hPa 0,0 l/m 0 min 0 min 0,0 UV-I 0 W/m 0,0 km/h (0 Bft)
07.10.2013 02:40 10,6 C 10,0 C 98 % 1026,3 hPa 0,0 l/m 0 min 0 min 0,0 UV-I 0 W/m 0,0 km/h (0 Bft)
07.10.2013 02:42 10,6 C 9,4 C 98 % 1026,3 hPa 0,0 l/m 0 min 0 min 0,0 UV-I 0 W/m 0,0 km/h (0 Bft)
07.10.2013 02:44 10,5 C 9,4 C 98 % 1026,3 hPa 0,0 l/m 0 min 0 min 0,0 UV-I 0 W/m 0,0 km/h (0 Bft)
07.10.2013 02:46 10,5 C 9,4 C 98 % 1026,3 hPa 0,0 l/m 0 min 0 min 0,0 UV-I 0 W/m 0,0 km/h (0 Bft)
07.10.2013 02:48 10,6 C 9,4 C 98 % 1026,3 hPa 0,0 l/m 0 min 0 min 0,0 UV-I 0 W/m 0,0 km/h (0 Bft)
07.10.2013 02:50 10,6 C 10,0 C 98 % 1026,3 hPa 0,0 l/m 0 min 0 min 0,0 UV-I 0 W/m 0,0 km/h (0 Bft)
07.10.2013 02:52 10,6 C 10,0 C 98 % 1026,2 hPa 0,0 l/m 0 min 0 min 0,0 UV-I 0 W/m 0,0 km/h (0 Bft)
07.10.2013 02:54 10,6 C 10,0 C 98 % 1026,2 hPa 0,0 l/m 0 min 0 min 0,0 UV-I 0 W/m 0,0 km/h (0 Bft)
07.10.2013 02:56 10,6 C 10,0 C 98 % 1026,2 hPa 0,0 l/m 0 min 0 min 0,0 UV-I 0 W/m 0,0 km/h (0 Bft)
07.10.2013 02:58 10,6 C 10,0 C 98 % 1026,2 hPa 0,0 l/m 0 min 0 min 0,0 UV-I 0 W/m 0,0 km/h (0 Bft)
07.10.2013 03:00 10,6 C 10,0 C 98 % 1026,2 hPa 0,0 l/m 0 min 0 min 0,0 UV-I 0 W/m 0,0 km/h (0 Bft)
07.10.2013 03:02 10,6 C 10,0 C 98 % 1026,2 hPa 0,0 l/m 0 min 0 min 0,0 UV-I 0 W/m 0,0 km/h (0 Bft)
07.10.2013 03:06 10,6 C 10,0 C 98 % 1026,1 hPa 0,0 l/m 0 min 0 min 0,0 UV-I 0 W/m 0,0 km/h (0 Bft)
07.10.2013 03:08 10,7 C 10,0 C 98 % 1026,2 hPa 0,0 l/m 0 min 0 min 0,0 UV-I 0 W/m 0,0 km/h (0 Bft)
07.10.2013 03:10 10,7 C 10,0 C 98 % 1026,2 hPa 0,0 l/m 0 min 0 min 0,0 UV-I 0 W/m 0,0 km/h (0 Bft)
07.10.2013 03:12 10,7 C 10,0 C 98 % 1026,2 hPa 0,0 l/m 0 min 0 min 0,0 UV-I 0 W/m 0,0 km/h (0 Bft)
07.10.2013 03:14 10,7 C 10,0 C 98 % 1026,1 hPa 0,0 l/m 0 min 0 min 0,0 UV-I 0 W/m 0,0 km/h (0 Bft)
07.10.2013 03:16 10,7 C 10,0 C 98 % 1026,1 hPa 0,0 l/m 0 min 0 min 0,0 UV-I 0 W/m 0,0 km/h (0 Bft)
07.10.2013 03:18 10,7 C 10,0 C 98 % 1026,1 hPa 0,0 l/m 0 min 0 min 0,0 UV-I 0 W/m 0,0 km/h (0 Bft)
07.10.2013 03:20 10,7 C 10,0 C 98 % 1026,1 hPa 0,0 l/m 0 min 0 min 0,0 UV-I 0 W/m 0,0 km/h (0 Bft)
07.10.2013 03:22 10,7 C 10,0 C 98 % 1026,1 hPa 0,0 l/m 0 min 0 min 0,0 UV-I 0 W/m 0,0 km/h (0 Bft)
07.10.2013 03:24 10,8 C 10,0 C 98 % 1026,2 hPa 0,0 l/m 0 min 0 min 0,0 UV-I 0 W/m 0,0 km/h (0 Bft)
07.10.2013 03:26 10,8 C 10,0 C 98 % 1026,1 hPa 0,0 l/m 0 min 0 min 0,0 UV-I 0 W/m 0,0 km/h (0 Bft)
07.10.2013 03:28 10,8 C 10,0 C 98 % 1026,1 hPa 0,0 l/m 0 min 0 min 0,0 UV-I 0 W/m 0,0 km/h (0 Bft)
07.10.2013 03:30 10,8 C 10,0 C 98 % 1026,1 hPa 0,0 l/m 0 min 0 min 0,0 UV-I 0 W/m 0,0 km/h (0 Bft)
07.10.2013 03:32 10,8 C 10,0 C 98 % 1026,1 hPa 0,0 l/m 0 min 0 min 0,0 UV-I 0 W/m 0,0 km/h (0 Bft)
07.10.2013 03:34 10,8 C 10,0 C 98 % 1026,0 hPa 0,0 l/m 0 min 0 min 0,0 UV-I 0 W/m 0,0 km/h (0 Bft)
07.10.2013 03:36 10,8 C 10,0 C 98 % 1026,0 hPa 0,0 l/m 0 min 0 min 0,0 UV-I 0 W/m 0,0 km/h (0 Bft)
07.10.2013 03:38 10,8 C 10,0 C 98 % 1026,0 hPa 0,0 l/m 0 min 0 min 0,0 UV-I 0 W/m 0,0 km/h (0 Bft)
07.10.2013 03:40 10,9 C 10,0 C 98 % 1026,0 hPa 0,0 l/m 0 min 0 min 0,0 UV-I 0 W/m 0,0 km/h (0 Bft)
07.10.2013 03:42 10,9 C 10,0 C 98 % 1026,1 hPa 0,0 l/m 0 min 0 min 0,0 UV-I 0 W/m 0,0 km/h (0 Bft)
07.10.2013 03:44 10,9 C 10,0 C 98 % 1026,1 hPa 0,0 l/m 0 min 0 min 0,0 UV-I 0 W/m 0,0 km/h (0 Bft)
07.10.2013 03:46 10,9 C 10,0 C 98 % 1026,0 hPa 0,0 l/m 0 min 0 min 0,0 UV-I 0 W/m 0,0 km/h (0 Bft)
07.10.2013 03:48 10,9 C 10,0 C 98 % 1026,0 hPa 0,0 l/m 0 min 0 min 0,0 UV-I 0 W/m 0,0 km/h (0 Bft)
07.10.2013 03:50 10,9 C 10,0 C 98 % 1025,9 hPa 0,0 l/m 0 min 0 min 0,0 UV-I 0 W/m 0,0 km/h (0 Bft)
07.10.2013 03:52 10,9 C 10,0 C 97 % 1025,9 hPa 0,0 l/m 0 min 0 min 0,0 UV-I 0 W/m 0,0 km/h (0 Bft)
07.10.2013 03:54 10,9 C 10,0 C 97 % 1026,0 hPa 0,0 l/m 0 min 0 min 0,0 UV-I 0 W/m 0,0 km/h (0 Bft)
07.10.2013 03:56 10,9 C 10,0 C 97 % 1026,0 hPa 0,0 l/m 0 min 0 min 0,0 UV-I 0 W/m 0,0 km/h (0 Bft)
07.10.2013 03:58 10,9 C 10,0 C 97 % 1026,0 hPa 0,0 l/m 0 min 0 min 0,0 UV-I 0 W/m 0,0 km/h (0 Bft)
07.10.2013 04:00 10,9 C 10,0 C 97 % 1026,0 hPa 0,0 l/m 0 min 0 min 0,0 UV-I 0 W/m 0,0 km/h (0 Bft)
07.10.2013 04:02 10,9 C 10,0 C 97 % 1026,0 hPa 0,0 l/m 0 min 0 min 0,0 UV-I 0 W/m 0,0 km/h (0 Bft)
07.10.2013 04:06 11,0 C 10,0 C 97 % 1026,0 hPa 0,0 l/m 0 min 0 min 0,0 UV-I 0 W/m 0,0 km/h (0 Bft)
07.10.2013 04:08 11,0 C 10,0 C 97 % 1026,0 hPa 0,0 l/m 0 min 0 min 0,0 UV-I 0 W/m 0,0 km/h (0 Bft)
07.10.2013 04:10 11,0 C 10,0 C 97 % 1026,0 hPa 0,0 l/m 0 min 0 min 0,0 UV-I 0 W/m 0,0 km/h (0 Bft)
07.10.2013 04:12 11,0 C 10,0 C 97 % 1026,0 hPa 0,0 l/m 0 min 0 min 0,0 UV-I 0 W/m 0,0 km/h (0 Bft)
07.10.2013 04:14 11,0 C 10,0 C 97 % 1026,0 hPa 0,0 l/m 0 min 0 min 0,0 UV-I 0 W/m 0,0 km/h (0 Bft)
07.10.2013 04:16 11,0 C 10,0 C 97 % 1026,0 hPa 0,0 l/m 0 min 0 min 0,0 UV-I 0 W/m 0,0 km/h (0 Bft)
07.10.2013 04:18 11,0 C 10,0 C 97 % 1026,0 hPa 0,0 l/m 0 min 0 min 0,0 UV-I 0 W/m 0,0 km/h (0 Bft)
07.10.2013 04:20 11,0 C 10,0 C 97 % 1026,1 hPa 0,0 l/m 0 min 0 min 0,0 UV-I 0 W/m 0,0 km/h (0 Bft)
07.10.2013 04:22 11,0 C 10,0 C 97 % 1026,0 hPa 0,0 l/m 0 min 0 min 0,0 UV-I 0 W/m 0,0 km/h (0 Bft)
07.10.2013 04:24 11,0 C 10,0 C 97 % 1026,0 hPa 0,0 l/m 0 min 0 min 0,0 UV-I 0 W/m 0,0 km/h (0 Bft)
07.10.2013 04:26 11,0 C 10,0 C 96 % 1026,0 hPa 0,0 l/m 0 min 0 min 0,0 UV-I 0 W/m 0,0 km/h (0 Bft)
07.10.2013 04:28 11,0 C 10,0 C 96 % 1025,9 hPa 0,0 l/m 0 min 0 min 0,0 UV-I 0 W/m 0,0 km/h (0 Bft)
07.10.2013 04:30 11,0 C 10,0 C 96 % 1026,0 hPa 0,0 l/m 0 min 0 min 0,0 UV-I 0 W/m 0,0 km/h (0 Bft)
07.10.2013 04:32 11,0 C 10,0 C 96 % 1025,9 hPa 0,0 l/m 0 min 0 min 0,0 UV-I 0 W/m 0,0 km/h (0 Bft)
07.10.2013 04:34 11,0 C 10,0 C 96 % 1025,9 hPa 0,0 l/m 0 min 0 min 0,0 UV-I 0 W/m 0,0 km/h (0 Bft)
07.10.2013 04:36 10,9 C 10,0 C 96 % 1026,0 hPa 0,0 l/m 0 min 0 min 0,0 UV-I 0 W/m 0,0 km/h (0 Bft)
07.10.2013 04:38 10,9 C 10,0 C 96 % 1025,9 hPa 0,0 l/m 0 min 0 min 0,0 UV-I 0 W/m 0,0 km/h (0 Bft)
07.10.2013 04:40 10,9 C 10,0 C 96 % 1025,9 hPa 0,0 l/m 0 min 0 min 0,0 UV-I 0 W/m 0,0 km/h (0 Bft)
07.10.2013 04:42 10,9 C 10,0 C 96 % 1025,9 hPa 0,0 l/m 0 min 0 min 0,0 UV-I 0 W/m 0,0 km/h (0 Bft)
07.10.2013 04:44 10,9 C 10,0 C 96 % 1025,9 hPa 0,0 l/m 0 min 0 min 0,0 UV-I 0 W/m 0,0 km/h (0 Bft)
07.10.2013 04:46 10,9 C 10,0 C 96 % 1025,9 hPa 0,0 l/m 0 min 0 min 0,0 UV-I 0 W/m 0,0 km/h (0 Bft)
07.10.2013 04:48 10,9 C 10,0 C 96 % 1025,9 hPa 0,0 l/m 0 min 0 min 0,0 UV-I 0 W/m 0,0 km/h (0 Bft)
07.10.2013 04:50 10,8 C 9,4 C 96 % 1025,9 hPa 0,0 l/m 0 min 0 min 0,0 UV-I 0 W/m 0,0 km/h (0 Bft)
07.10.2013 04:52 10,8 C 9,4 C 96 % 1025,9 hPa 0,0 l/m 0 min 0 min 0,0 UV-I 0 W/m 0,0 km/h (0 Bft)
07.10.2013 04:54 10,8 C 9,4 C 96 % 1025,8 hPa 0,0 l/m 0 min 0 min 0,0 UV-I 0 W/m 0,0 km/h (0 Bft)
07.10.2013 04:56 10,8 C 9,4 C 96 % 1025,9 hPa 0,0 l/m 0 min 0 min 0,0 UV-I 0 W/m 0,0 km/h (0 Bft)
07.10.2013 04:58 10,8 C 9,4 C 96 % 1025,9 hPa 0,0 l/m 0 min 0 min 0,0 UV-I 0 W/m 0,0 km/h (0 Bft)
07.10.2013 05:00 10,7 C 9,4 C 96 % 1026,0 hPa 0,0 l/m 0 min 0 min 0,0 UV-I 0 W/m 0,0 km/h (0 Bft)
07.10.2013 05:02 10,7 C 9,4 C 96 % 1025,9 hPa 0,0 l/m 0 min 0 min 0,0 UV-I 0 W/m 0,0 km/h (0 Bft)
07.10.2013 05:06 10,7 C 9,4 C 96 % 1025,9 hPa 0,0 l/m 0 min 0 min 0,0 UV-I 0 W/m 0,0 km/h (0 Bft)
07.10.2013 05:08 10,7 C 9,4 C 96 % 1025,8 hPa 0,0 l/m 0 min 0 min 0,0 UV-I 0 W/m 0,0 km/h (0 Bft)
07.10.2013 05:10 10,7 C 9,4 C 96 % 1025,9 hPa 0,0 l/m 0 min 0 min 0,0 UV-I 0 W/m 0,0 km/h (0 Bft)
07.10.2013 05:12 10,7 C 9,4 C 96 % 1025,9 hPa 0,0 l/m 0 min 0 min 0,0 UV-I 0 W/m 0,0 km/h (0 Bft)
07.10.2013 05:14 10,6 C 9,4 C 96 % 1025,9 hPa 0,0 l/m 0 min 0 min 0,0 UV-I 0 W/m 0,0 km/h (0 Bft)
07.10.2013 05:16 10,6 C 9,4 C 96 % 1025,9 hPa 0,0 l/m 0 min 0 min 0,0 UV-I 0 W/m 0,0 km/h (0 Bft)
07.10.2013 05:18 10,6 C 9,4 C 96 % 1025,9 hPa 0,0 l/m 0 min 0 min 0,0 UV-I 0 W/m 0,0 km/h (0 Bft)
07.10.2013 05:20 10,5 C 9,4 C 96 % 1025,9 hPa 0,0 l/m 0 min 0 min 0,0 UV-I 0 W/m 0,0 km/h (0 Bft)
07.10.2013 05:22 10,4 C 9,4 C 96 % 1025,9 hPa 0,0 l/m 0 min 0 min 0,0 UV-I 0 W/m 0,0 km/h (0 Bft)
07.10.2013 05:24 10,4 C 9,4 C 96 % 1025,9 hPa 0,0 l/m 0 min 0 min 0,0 UV-I 0 W/m 0,0 km/h (0 Bft)
07.10.2013 05:26 10,4 C 9,4 C 96 % 1025,9 hPa 0,0 l/m 0 min 0 min 0,0 UV-I 0 W/m 0,0 km/h (0 Bft)
07.10.2013 05:28 10,4 C 9,4 C 96 % 1025,9 hPa 0,0 l/m 0 min 0 min 0,0 UV-I 0 W/m 0,0 km/h (0 Bft)
07.10.2013 05:30 10,4 C 9,4 C 96 % 1025,9 hPa 0,0 l/m 0 min 0 min 0,0 UV-I 0 W/m 0,0 km/h (0 Bft)
07.10.2013 05:32 10,4 C 9,4 C 96 % 1025,9 hPa 0,0 l/m 0 min 0 min 0,0 UV-I 0 W/m 0,0 km/h (0 Bft)
07.10.2013 05:34 10,3 C 9,4 C 96 % 1025,9 hPa 0,0 l/m 0 min 0 min 0,0 UV-I 0 W/m 0,0 km/h (0 Bft)
07.10.2013 05:36 10,3 C 9,4 C 96 % 1025,9 hPa 0,0 l/m 0 min 0 min 0,0 UV-I 0 W/m 0,0 km/h (0 Bft)
07.10.2013 05:38 10,3 C 9,4 C 96 % 1025,9 hPa 0,0 l/m 0 min 0 min 0,0 UV-I 0 W/m 0,0 km/h (0 Bft)
07.10.2013 05:40 10,3 C 9,4 C 96 % 1026,0 hPa 0,0 l/m 0 min 0 min 0,0 UV-I 0 W/m 0,0 km/h (0 Bft)
07.10.2013 05:42 10,3 C 9,4 C 96 % 1026,0 hPa 0,0 l/m 0 min 0 min 0,0 UV-I 0 W/m 0,0 km/h (0 Bft)
07.10.2013 05:44 10,3 C 9,4 C 96 % 1025,9 hPa 0,0 l/m 0 min 0 min 0,0 UV-I 0 W/m 0,0 km/h (0 Bft)
07.10.2013 05:46 10,3 C 9,4 C 96 % 1025,9 hPa 0,0 l/m 0 min 0 min 0,0 UV-I 0 W/m 0,0 km/h (0 Bft)
07.10.2013 05:48 10,2 C 8,9 C 96 % 1025,9 hPa 0,0 l/m 0 min 0 min 0,0 UV-I 0 W/m 0,0 km/h (0 Bft)
07.10.2013 05:50 10,2 C 8,9 C 96 % 1025,9 hPa 0,0 l/m 0 min 0 min 0,0 UV-I 0 W/m 0,0 km/h (0 Bft)
07.10.2013 05:52 10,2 C 8,9 C 96 % 1025,9 hPa 0,0 l/m 0 min 0 min 0,0 UV-I 0 W/m 0,0 km/h (0 Bft)
07.10.2013 05:54 10,2 C 8,9 C 96 % 1026,0 hPa 0,0 l/m 0 min 0 min 0,0 UV-I 0 W/m 0,0 km/h (0 Bft)
07.10.2013 05:56 10,2 C 8,9 C 96 % 1026,0 hPa 0,0 l/m 0 min 0 min 0,0 UV-I 0 W/m 0,0 km/h (0 Bft)
07.10.2013 05:58 10,2 C 8,9 C 96 % 1026,0 hPa 0,0 l/m 0 min 0 min 0,0 UV-I 0 W/m 0,0 km/h (0 Bft)
07.10.2013 06:00 10,2 C 8,9 C 96 % 1026,0 hPa 0,0 l/m 0 min 0 min 0,0 UV-I 0 W/m 0,0 km/h (0 Bft)
07.10.2013 06:02 10,1 C 8,9 C 96 % 1026,0 hPa 0,0 l/m 0 min 0 min 0,0 UV-I 0 W/m 0,0 km/h (0 Bft)
07.10.2013 06:06 10,1 C 8,9 C 96 % 1026,1 hPa 0,0 l/m 0 min 0 min 0,0 UV-I 0 W/m 0,0 km/h (0 Bft)
07.10.2013 06:08 10,1 C 8,9 C 96 % 1026,0 hPa 0,0 l/m 0 min 0 min 0,0 UV-I 0 W/m 0,0 km/h (0 Bft)
07.10.2013 06:10 10,1 C 8,9 C 96 % 1026,0 hPa 0,0 l/m 0 min 0 min 0,0 UV-I 0 W/m 0,0 km/h (0 Bft)
07.10.2013 06:12 10,1 C 8,9 C 96 % 1026,0 hPa 0,0 l/m 0 min 0 min 0,0 UV-I 0 W/m 0,0 km/h (0 Bft)
07.10.2013 06:14 10,1 C 8,9 C 96 % 1026,0 hPa 0,0 l/m 0 min 0 min 0,0 UV-I 0 W/m 0,0 km/h (0 Bft)
07.10.2013 06:16 10,1 C 8,9 C 96 % 1026,0 hPa 0,0 l/m 0 min 0 min 0,0 UV-I 0 W/m 0,0 km/h (0 Bft)
07.10.2013 06:18 10,1 C 8,9 C 96 % 1026,0 hPa 0,0 l/m 0 min 0 min 0,0 UV-I 0 W/m 0,0 km/h (0 Bft)
07.10.2013 06:20 10,1 C 8,9 C 96 % 1025,9 hPa 0,0 l/m 0 min 0 min 0,0 UV-I 0 W/m 0,0 km/h (0 Bft)
07.10.2013 06:22 10,0 C 8,9 C 96 % 1025,9 hPa 0,0 l/m 0 min 0 min 0,0 UV-I 0 W/m 0,0 km/h (0 Bft)
07.10.2013 06:24 10,0 C 8,9 C 96 % 1025,9 hPa 0,0 l/m 0 min 0 min 0,0 UV-I 0 W/m 0,0 km/h (0 Bft)
07.10.2013 06:26 10,0 C 8,9 C 97 % 1025,9 hPa 0,0 l/m 0 min 0 min 0,0 UV-I 0 W/m 0,0 km/h (0 Bft)
07.10.2013 06:28 10,0 C 8,9 C 97 % 1026,0 hPa 0,0 l/m 0 min 0 min 0,0 UV-I 0 W/m 0,0 km/h (0 Bft)
07.10.2013 06:30 10,0 C 8,9 C 97 % 1025,9 hPa 0,0 l/m 0 min 0 min 0,0 UV-I 0 W/m 0,0 km/h (0 Bft)
07.10.2013 06:32 9,9 C 8,9 C 97 % 1025,9 hPa 0,0 l/m 0 min 0 min 0,0 UV-I 0 W/m 0,0 km/h (0 Bft)
07.10.2013 06:34 9,9 C 8,9 C 97 % 1025,9 hPa 0,0 l/m 0 min 0 min 0,0 UV-I 0 W/m 0,0 km/h (0 Bft)
07.10.2013 06:36 9,9 C 8,9 C 96 % 1025,8 hPa 0,0 l/m 0 min 0 min 0,0 UV-I 0 W/m 0,0 km/h (0 Bft)
07.10.2013 06:38 9,9 C 8,9 C 96 % 1025,8 hPa 0,0 l/m 0 min 0 min 0,0 UV-I 0 W/m 0,0 km/h (0 Bft)
07.10.2013 06:40 9,8 C 8,9 C 96 % 1025,8 hPa 0,0 l/m 0 min 0 min 0,0 UV-I 0 W/m 0,0 km/h (0 Bft)
07.10.2013 06:42 9,8 C 8,3 C 96 % 1025,9 hPa 0,0 l/m 0 min 0 min 0,0 UV-I 0 W/m 0,0 km/h (0 Bft)
07.10.2013 06:44 9,7 C 8,3 C 97 % 1025,9 hPa 0,0 l/m 0 min 0 min 0,0 UV-I 0 W/m 0,0 km/h (0 Bft)
07.10.2013 06:46 9,7 C 8,3 C 97 % 1025,9 hPa 0,0 l/m 0 min 0 min 0,0 UV-I 0 W/m 0,0 km/h (0 Bft)
07.10.2013 06:48 9,7 C 8,3 C 97 % 1025,9 hPa 0,0 l/m 0 min 0 min 0,0 UV-I 0 W/m 0,0 km/h (0 Bft)
07.10.2013 06:50 9,6 C 8,3 C 97 % 1025,9 hPa 0,0 l/m 0 min 0 min 0,0 UV-I 0 W/m 0,0 km/h (0 Bft)
07.10.2013 06:52 9,6 C 8,3 C 97 % 1025,9 hPa 0,0 l/m 0 min 0 min 0,0 UV-I 0 W/m 0,0 km/h (0 Bft)
07.10.2013 06:54 9,6 C 8,3 C 96 % 1026,0 hPa 0,0 l/m 0 min 0 min 0,0 UV-I 0 W/m 0,0 km/h (0 Bft)
07.10.2013 06:56 9,5 C 8,3 C 96 % 1025,8 hPa 0,0 l/m 0 min 0 min 0,0 UV-I 0 W/m 0,0 km/h (0 Bft)
07.10.2013 06:58 9,4 C 8,3 C 96 % 1026,0 hPa 0,0 l/m 0 min 0 min 0,0 UV-I 0 W/m 0,0 km/h (0 Bft)
07.10.2013 07:00 9,4 C 7,8 C 96 % 1026,0 hPa 0,0 l/m 0 min 0 min 0,0 UV-I 0 W/m 0,0 km/h (0 Bft)
07.10.2013 07:02 9,4 C 7,8 C 96 % 1026,0 hPa 0,0 l/m 0 min 0 min 0,0 UV-I 0 W/m 0,0 km/h (0 Bft)
07.10.2013 07:06 9,4 C 7,8 C 96 % 1026,0 hPa 0,0 l/m 0 min 0 min 0,0 UV-I 0 W/m 0,0 km/h (0 Bft)
07.10.2013 07:08 9,4 C 7,8 C 97 % 1026,0 hPa 0,0 l/m 0 min 0 min 0,0 UV-I 0 W/m 0,0 km/h (0 Bft)
07.10.2013 07:10 9,4 C 7,8 C 97 % 1026,0 hPa 0,0 l/m 0 min 0 min 0,0 UV-I 0 W/m 0,0 km/h (0 Bft)
07.10.2013 07:12 9,3 C 7,8 C 97 % 1026,0 hPa 0,0 l/m 0 min 0 min 0,0 UV-I 0 W/m 0,0 km/h (0 Bft)
07.10.2013 07:14 9,3 C 7,8 C 97 % 1026,1 hPa 0,0 l/m 0 min 0 min 0,0 UV-I 0 W/m 0,0 km/h (0 Bft)
07.10.2013 07:16 9,3 C 7,8 C 97 % 1026,1 hPa 0,0 l/m 0 min 0 min 0,0 UV-I 0 W/m 0,0 km/h (0 Bft)
07.10.2013 07:18 9,2 C 7,8 C 96 % 1026,2 hPa 0,0 l/m 0 min 0 min 0,0 UV-I 0 W/m 0,0 km/h (0 Bft)
07.10.2013 07:20 9,2 C 7,8 C 97 % 1026,2 hPa 0,0 l/m 0 min 0 min 0,0 UV-I 0 W/m 0,0 km/h (0 Bft)
07.10.2013 07:22 9,2 C 7,8 C 97 % 1026,2 hPa 0,0 l/m 0 min 0 min 0,0 UV-I 0 W/m 0,0 km/h (0 Bft)
07.10.2013 07:24 9,1 C 7,8 C 97 % 1026,2 hPa 0,0 l/m 0 min 0 min 0,0 UV-I 0 W/m 0,0 km/h (0 Bft)
07.10.2013 07:26 9,1 C 7,8 C 97 % 1026,2 hPa 0,0 l/m 0 min 0 min 0,0 UV-I 0 W/m 0,0 km/h (0 Bft)
07.10.2013 07:28 9,1 C 7,2 C 97 % 1026,2 hPa 0,0 l/m 0 min 0 min 0,0 UV-I 0 W/m 0,0 km/h (0 Bft)
07.10.2013 07:30 9,0 C 7,2 C 97 % 1026,3 hPa 0,0 l/m 0 min 0 min 0,0 UV-I 0 W/m 0,0 km/h (0 Bft)
07.10.2013 07:32 8,9 C 7,2 C 97 % 1026,3 hPa 0,0 l/m 0 min 0 min 0,0 UV-I 0 W/m 0,0 km/h (0 Bft)
07.10.2013 07:34 8,9 C 7,2 C 97 % 1026,3 hPa 0,0 l/m 0 min 0 min 0,0 UV-I 0 W/m 0,0 km/h (0 Bft)
07.10.2013 07:36 8,9 C 7,2 C 96 % 1026,3 hPa 0,0 l/m 0 min 0 min 0,0 UV-I 0 W/m 0,0 km/h (0 Bft)
07.10.2013 07:38 8,9 C 7,2 C 97 % 1026,3 hPa 0,0 l/m 0 min 0 min 0,0 UV-I 0 W/m 0,0 km/h (0 Bft)
07.10.2013 07:40 8,8 C 7,2 C 97 % 1026,3 hPa 0,0 l/m 0 min 0 min 0,0 UV-I 0 W/m 0,0 km/h (0 Bft)
07.10.2013 07:42 8,8 C 7,2 C 97 % 1026,3 hPa 0,0 l/m 0 min 0 min 0,0 UV-I 0 W/m 0,0 km/h (0 Bft)
07.10.2013 07:44 8,8 C 7,2 C 97 % 1026,3 hPa 0,0 l/m 0 min 0 min 0,0 UV-I 5 W/m 0,0 km/h (0 Bft)
07.10.2013 07:46 8,8 C 7,2 C 97 % 1026,4 hPa 0,0 l/m 0 min 0 min 0,0 UV-I 5 W/m 0,0 km/h (0 Bft)
07.10.2013 07:48 8,7 C 7,2 C 97 % 1026,4 hPa 0,0 l/m 0 min 0 min 0,0 UV-I 5 W/m 0,0 km/h (0 Bft)
07.10.2013 07:50 8,7 C 7,2 C 97 % 1026,4 hPa 0,0 l/m 0 min 0 min 0,0 UV-I 7 W/m 0,0 km/h (0 Bft)
07.10.2013 07:52 8,7 C 7,2 C 97 % 1026,3 hPa 0,0 l/m 0 min 0 min 0,0 UV-I 7 W/m 0,0 km/h (0 Bft)
07.10.2013 07:54 8,8 C 7,2 C 97 % 1026,4 hPa 0,0 l/m 0 min 0 min 0,0 UV-I 9 W/m 0,0 km/h (0 Bft)
07.10.2013 07:56 8,8 C 7,2 C 97 % 1026,4 hPa 0,0 l/m 0 min 0 min 0,0 UV-I 9 W/m 0,0 km/h (0 Bft)
07.10.2013 07:58 8,8 C 7,2 C 97 % 1026,4 hPa 0,0 l/m 0 min 0 min 0,0 UV-I 11 W/m 0,0 km/h (0 Bft)
07.10.2013 08:00 8,7 C 7,2 C 97 % 1026,4 hPa 0,0 l/m 0 min 0 min 0,0 UV-I 11 W/m 0,0 km/h (0 Bft)
07.10.2013 08:02 8,7 C 7,2 C 97 % 1026,4 hPa 0,0 l/m 0 min 0 min 0,0 UV-I 12 W/m 0,0 km/h (0 Bft)
07.10.2013 08:06 8,7 C 7,2 C 97 % 1026,4 hPa 0,0 l/m 0 min 0 min 0,0 UV-I 14 W/m 0,0 km/h (0 Bft)
07.10.2013 08:08 8,7 C 7,2 C 97 % 1026,3 hPa 0,0 l/m 0 min 0 min 0,0 UV-I 16 W/m 0,0 km/h (0 Bft)
07.10.2013 08:10 8,7 C 7,2 C 97 % 1026,3 hPa 0,0 l/m 0 min 0 min 0,0 UV-I 16 W/m 0,0 km/h (0 Bft)
07.10.2013 08:12 8,7 C 7,2 C 97 % 1026,3 hPa 0,0 l/m 0 min 0 min 0,0 UV-I 18 W/m 0,0 km/h (0 Bft)
07.10.2013 08:14 8,7 C 7,2 C 97 % 1026,3 hPa 0,0 l/m 0 min 0 min 0,0 UV-I 19 W/m 0,0 km/h (0 Bft)
07.10.2013 08:16 8,7 C 7,2 C 97 % 1026,3 hPa 0,0 l/m 0 min 0 min 0,0 UV-I 21 W/m 0,0 km/h (0 Bft)
07.10.2013 08:18 8,7 C 7,2 C 97 % 1026,4 hPa 0,0 l/m 0 min 0 min 0,0 UV-I 21 W/m 0,0 km/h (0 Bft)
07.10.2013 08:20 8,7 C 7,2 C 97 % 1026,3 hPa 0,0 l/m 0 min 0 min 0,0 UV-I 25 W/m 0,0 km/h (0 Bft)
07.10.2013 08:22 8,7 C 7,2 C 97 % 1026,4 hPa 0,0 l/m 0 min 0 min 0,0 UV-I 28 W/m 0,0 km/h (0 Bft)
07.10.2013 08:24 8,7 C 7,2 C 97 % 1026,4 hPa 0,0 l/m 0 min 0 min 0,0 UV-I 30 W/m 0,0 km/h (0 Bft)
07.10.2013 08:26 8,7 C 7,2 C 97 % 1026,4 hPa 0,0 l/m 0 min 0 min 0,0 UV-I 28 W/m 0,0 km/h (0 Bft)
07.10.2013 08:28 8,7 C 7,2 C 97 % 1026,4 hPa 0,0 l/m 0 min 0 min 0,0 UV-I 32 W/m 0,0 km/h (0 Bft)
07.10.2013 08:30 8,7 C 7,8 C 97 % 1026,4 hPa 0,0 l/m 0 min 0 min 0,0 UV-I 39 W/m 0,0 km/h (0 Bft)
07.10.2013 08:32 8,7 C 7,8 C 97 % 1026,5 hPa 0,0 l/m 0 min 0 min 0,0 UV-I 40 W/m 0,0 km/h (0 Bft)
07.10.2013 08:34 8,7 C 7,8 C 97 % 1026,4 hPa 0,0 l/m 0 min 0 min 0,0 UV-I 39 W/m 0,0 km/h (0 Bft)
07.10.2013 08:36 8,7 C 7,8 C 97 % 1026,4 hPa 0,0 l/m 0 min 0 min 0,0 UV-I 44 W/m 0,0 km/h (0 Bft)
07.10.2013 08:38 8,7 C 7,8 C 97 % 1026,4 hPa 0,0 l/m 0 min 0 min 0,0 UV-I 42 W/m 0,0 km/h (0 Bft)
07.10.2013 08:40 8,8 C 7,8 C 97 % 1026,4 hPa 0,0 l/m 0 min 0 min 0,0 UV-I 42 W/m 0,0 km/h (0 Bft)
07.10.2013 08:42 8,8 C 7,8 C 97 % 1026,4 hPa 0,0 l/m 0 min 0 min 0,0 UV-I 44 W/m 0,0 km/h (0 Bft)
07.10.2013 08:44 8,8 C 7,8 C 97 % 1026,4 hPa 0,0 l/m 0 min 0 min 0,0 UV-I 46 W/m 0,0 km/h (0 Bft)
07.10.2013 08:46 8,9 C 7,8 C 97 % 1026,5 hPa 0,0 l/m 0 min 0 min 0,0 UV-I 46 W/m 0,0 km/h (0 Bft)
07.10.2013 08:48 8,9 C 7,8 C 97 % 1026,5 hPa 0,0 l/m 0 min 0 min 0,0 UV-I 62 W/m 0,0 km/h (0 Bft)
07.10.2013 08:50 8,9 C 7,8 C 97 % 1026,5 hPa 0,0 l/m 0 min 0 min 0,0 UV-I 74 W/m 0,0 km/h (0 Bft)
07.10.2013 08:52 9,0 C 7,8 C 97 % 1026,4 hPa 0,0 l/m 0 min 0 min 0,0 UV-I 72 W/m 0,0 km/h (0 Bft)
07.10.2013 08:54 9,1 C 7,8 C 97 % 1026,5 hPa 0,0 l/m 0 min 0 min 0,0 UV-I 81 W/m 0,0 km/h (0 Bft)
07.10.2013 08:56 9,1 C 7,8 C 97 % 1026,4 hPa 0,0 l/m 0 min 0 min 0,0 UV-I 76 W/m 0,0 km/h (0 Bft)
07.10.2013 08:58 9,1 C 8,3 C 97 % 1026,5 hPa 0,0 l/m 0 min 0 min 0,0 UV-I 77 W/m 0,0 km/h (0 Bft)
07.10.2013 09:00 9,2 C 8,3 C 97 % 1026,6 hPa 0,0 l/m 0 min 0 min 0,0 UV-I 91 W/m 0,0 km/h (0 Bft)
07.10.2013 09:08 9,3 C 8,3 C 97 % 1026,5 hPa 0,0 l/m 0 min 0 min 0,0 UV-I 98 W/m 0,0 km/h (0 Bft)
07.10.2013 09:10 9,4 C 8,3 C 97 % 1026,5 hPa 0,0 l/m 0 min 0 min 0,0 UV-I 105 W/m 0,0 km/h (0 Bft)
07.10.2013 09:12 9,4 C 8,3 C 97 % 1026,5 hPa 0,0 l/m 0 min 0 min 0,0 UV-I 113 W/m 0,0 km/h (0 Bft)
07.10.2013 09:14 9,5 C 8,9 C 97 % 1026,5 hPa 0,0 l/m 0 min 0 min 0,0 UV-I 113 W/m 0,0 km/h (0 Bft)
07.10.2013 09:16 9,6 C 8,9 C 97 % 1026,6 hPa 0,0 l/m 0 min 0 min 0,0 UV-I 105 W/m 0,0 km/h (0 Bft)
07.10.2013 09:18 9,7 C 8,9 C 97 % 1026,6 hPa 0,0 l/m 0 min 0 min 0,0 UV-I 97 W/m 0,0 km/h (0 Bft)
07.10.2013 09:20 9,7 C 8,9 C 97 % 1026,6 hPa 0,0 l/m 0 min 0 min 0,0 UV-I 118 W/m 0,0 km/h (0 Bft)
07.10.2013 09:22 9,8 C 8,9 C 97 % 1026,6 hPa 0,0 l/m 0 min 0 min 0,0 UV-I 98 W/m 0,0 km/h (0 Bft)
07.10.2013 09:24 9,8 C 8,9 C 97 % 1026,6 hPa 0,0 l/m 0 min 0 min 0,0 UV-I 98 W/m 0,0 km/h (0 Bft)
07.10.2013 09:26 9,9 C 8,9 C 97 % 1026,6 hPa 0,0 l/m 0 min 0 min 0,0 UV-I 97 W/m 0,0 km/h (0 Bft)
07.10.2013 09:28 9,9 C 8,9 C 97 % 1026,5 hPa 0,0 l/m 0 min 0 min 0,0 UV-I 91 W/m 0,0 km/h (0 Bft)
07.10.2013 09:30 10,0 C 9,4 C 97 % 1026,6 hPa 0,0 l/m 0 min 0 min 0,0 UV-I 95 W/m 0,0 km/h (0 Bft)
07.10.2013 09:32 10,1 C 9,4 C 97 % 1026,6 hPa 0,0 l/m 0 min 0 min 0,0 UV-I 104 W/m 0,0 km/h (0 Bft)
07.10.2013 09:34 10,1 C 9,4 C 97 % 1026,7 hPa 0,0 l/m 0 min 0 min 0,0 UV-I 114 W/m 0,0 km/h (0 Bft)
07.10.2013 09:36 10,2 C 9,4 C 97 % 1026,7 hPa 0,0 l/m 0 min 0 min 0,0 UV-I 121 W/m 0,0 km/h (0 Bft)
07.10.2013 09:38 10,2 C 9,4 C 96 % 1026,7 hPa 0,0 l/m 0 min 0 min 0,0 UV-I 118 W/m 0,0 km/h (0 Bft)
07.10.2013 09:40 10,3 C 9,4 C 96 % 1026,7 hPa 0,0 l/m 2 min 0 min 0,0 UV-I 204 W/m 0,0 km/h (0 Bft)
07.10.2013 09:42 10,4 C 10,0 C 96 % 1026,7 hPa 0,0 l/m 2 min 0 min 0,0 UV-I 204 W/m 0,0 km/h (0 Bft)
07.10.2013 09:44 10,5 C 10,0 C 96 % 1026,6 hPa 0,0 l/m 2 min 0 min 0,0 UV-I 186 W/m 0,0 km/h (0 Bft)
07.10.2013 09:46 10,6 C 10,0 C 96 % 1026,6 hPa 0,0 l/m 2 min 0 min 0,0 UV-I 171 W/m 0,0 km/h (0 Bft)
07.10.2013 09:48 10,7 C 10,0 C 96 % 1026,6 hPa 0,0 l/m 2 min 0 min 0,0 UV-I 218 W/m 0,0 km/h (0 Bft)
07.10.2013 09:50 10,8 C 10,6 C 96 % 1026,7 hPa 0,0 l/m 2 min 0 min 0,0 UV-I 262 W/m 0,0 km/h (0 Bft)
07.10.2013 09:52 11,0 C 10,6 C 96 % 1026,8 hPa 0,0 l/m 2 min 0 min 0,0 UV-I 274 W/m 0,0 km/h (0 Bft)
07.10.2013 09:54 11,2 C 10,6 C 95 % 1026,7 hPa 0,0 l/m 2 min 0 min 0,0 UV-I 260 W/m 0,0 km/h (0 Bft)
07.10.2013 09:56 11,3 C 11,1 C 95 % 1026,7 hPa 0,0 l/m 2 min 0 min 0,0 UV-I 267 W/m 0,0 km/h (0 Bft)
07.10.2013 09:58 11,5 C 11,1 C 95 % 1026,7 hPa 0,0 l/m 2 min 0 min 0,0 UV-I 216 W/m 0,0 km/h (0 Bft)
07.10.2013 10:00 11,7 C 11,1 C 95 % 1026,7 hPa 0,0 l/m 2 min 0 min 0,0 UV-I 197 W/m 0,0 km/h (0 Bft)
07.10.2013 10:02 11,7 C 11,7 C 94 % 1026,7 hPa 0,0 l/m 2 min 0 min 0,0 UV-I 195 W/m 0,0 km/h (0 Bft)
07.10.2013 10:06 11,9 C 11,7 C 93 % 1026,7 hPa 0,0 l/m 2 min 0 min 0,0 UV-I 190 W/m 0,0 km/h (0 Bft)
07.10.2013 10:08 12,0 C 11,7 C 93 % 1026,7 hPa 0,0 l/m 2 min 0 min 0,0 UV-I 188 W/m 0,0 km/h (0 Bft)
07.10.2013 10:10 12,1 C 11,7 C 92 % 1026,8 hPa 0,0 l/m 0 min 0 min 0,0 UV-I 183 W/m 0,0 km/h (0 Bft)
07.10.2013 10:12 12,2 C 11,7 C 92 % 1026,8 hPa 0,0 l/m 0 min 0 min 0,0 UV-I 190 W/m 0,0 km/h (0 Bft)
07.10.2013 10:14 12,2 C 11,7 C 92 % 1026,7 hPa 0,0 l/m 2 min 0 min 0,0 UV-I 193 W/m 0,0 km/h (0 Bft)
07.10.2013 10:16 12,4 C 12,2 C 91 % 1026,7 hPa 0,0 l/m 2 min 0 min 0,0 UV-I 206 W/m 0,0 km/h (0 Bft)
07.10.2013 10:18 12,5 C 12,2 C 91 % 1026,7 hPa 0,0 l/m 2 min 0 min 0,0 UV-I 200 W/m 0,0 km/h (0 Bft)
07.10.2013 10:20 12,6 C 12,2 C 91 % 1026,7 hPa 0,0 l/m 0 min 0 min 0,0 UV-I 195 W/m 0,0 km/h (0 Bft)
07.10.2013 10:22 12,6 C 12,2 C 90 % 1026,7 hPa 0,0 l/m 0 min 0 min 0,0 UV-I 181 W/m 0,0 km/h (0 Bft)
07.10.2013 10:24 12,7 C 12,2 C 90 % 1026,8 hPa 0,0 l/m 0 min 0 min 0,0 UV-I 188 W/m 0,0 km/h (0 Bft)
07.10.2013 10:26 12,7 C 12,2 C 90 % 1026,8 hPa 0,0 l/m 0 min 0 min 0,0 UV-I 188 W/m 0,0 km/h (0 Bft)
07.10.2013 10:28 12,7 C 12,2 C 89 % 1026,8 hPa 0,0 l/m 0 min 0 min 0,0 UV-I 200 W/m 0,0 km/h (0 Bft)
07.10.2013 10:30 12,8 C 12,2 C 89 % 1026,8 hPa 0,0 l/m 2 min 0 min 0,0 UV-I 220 W/m 0,0 km/h (0 Bft)
07.10.2013 10:32 12,8 C 12,2 C 90 % 1026,8 hPa 0,0 l/m 0 min 0 min 0,0 UV-I 209 W/m 0,0 km/h (0 Bft)
07.10.2013 10:34 12,9 C 12,2 C 89 % 1026,8 hPa 0,0 l/m 2 min 0 min 0,0 UV-I 225 W/m 0,0 km/h (0 Bft)
07.10.2013 10:36 13,0 C 12,2 C 89 % 1026,8 hPa 0,0 l/m 0 min 0 min 0,0 UV-I 207 W/m 0,0 km/h (0 Bft)
07.10.2013 10:38 13,1 C 12,2 C 89 % 1026,8 hPa 0,0 l/m 0 min 0 min 0,0 UV-I 211 W/m 0,0 km/h (0 Bft)
07.10.2013 10:40 13,1 C 12,8 C 88 % 1026,8 hPa 0,0 l/m 0 min 0 min 0,0 UV-I 211 W/m 0,0 km/h (0 Bft)
07.10.2013 10:42 13,2 C 12,8 C 88 % 1026,8 hPa 0,0 l/m 0 min 0 min 0,0 UV-I 213 W/m 0,0 km/h (0 Bft)
07.10.2013 10:44 13,2 C 12,8 C 87 % 1026,9 hPa 0,0 l/m 2 min 0 min 0,0 UV-I 248 W/m 0,0 km/h (0 Bft)
07.10.2013 10:46 13,3 C 12,8 C 87 % 1026,8 hPa 0,0 l/m 2 min 0 min 0,0 UV-I 229 W/m 0,0 km/h (0 Bft)
07.10.2013 10:48 13,4 C 12,8 C 86 % 1026,8 hPa 0,0 l/m 0 min 0 min 0,0 UV-I 213 W/m 0,0 km/h (0 Bft)
07.10.2013 10:50 13,4 C 12,8 C 87 % 1026,8 hPa 0,0 l/m 2 min 0 min 0,0 UV-I 244 W/m 0,0 km/h (0 Bft)
07.10.2013 10:52 13,6 C 12,8 C 86 % 1026,8 hPa 0,0 l/m 0 min 0 min 0,0 UV-I 206 W/m 0,0 km/h (0 Bft)
07.10.2013 10:54 13,6 C 12,8 C 86 % 1026,8 hPa 0,0 l/m 0 min 0 min 0,0 UV-I 209 W/m 0,0 km/h (0 Bft)
07.10.2013 10:56 13,7 C 13,3 C 86 % 1026,8 hPa 0,0 l/m 0 min 0 min 0,0 UV-I 207 W/m 0,0 km/h (0 Bft)
07.10.2013 10:58 13,7 C 13,3 C 86 % 1026,9 hPa 0,0 l/m 0 min 0 min 0,5 UV-I 213 W/m 0,0 km/h (0 Bft)
07.10.2013 11:00 13,7 C 13,3 C 86 % 1026,9 hPa 0,0 l/m 0 min 0 min 0,5 UV-I 213 W/m 0,0 km/h (0 Bft)
07.10.2013 11:05 13,9 C 13,3 C 85 % 1026,9 hPa 0,0 l/m 2 min 0 min 0,6 UV-I 279 W/m 0,0 km/h (0 Bft)
07.10.2013 11:10 14,2 C 13,9 C 84 % 1026,8 hPa 0,0 l/m 2 min 0 min 0,7 UV-I 260 W/m 0,0 km/h (0 Bft)
07.10.2013 11:15 14,2 C 13,9 C 84 % 1026,9 hPa 0,0 l/m 2 min 0 min 0,8 UV-I 297 W/m 0,0 km/h (0 Bft)
07.10.2013 11:20 14,2 C 13,3 C 85 % 1026,9 hPa 0,0 l/m 0 min 0 min 0,7 UV-I 223 W/m 0,0 km/h (0 Bft)
07.10.2013 11:25 14,2 C 13,3 C 84 % 1026,9 hPa 0,0 l/m 2 min 0 min 1,0 UV-I 380 W/m 0,0 km/h (0 Bft)
07.10.2013 11:30 14,6 C 13,3 C 83 % 1026,9 hPa 0,0 l/m 0 min 0 min 0,9 UV-I 253 W/m 0,0 km/h (0 Bft)
07.10.2013 11:35 14,7 C 13,3 C 83 % 1026,9 hPa 0,0 l/m 2 min 0 min 1,1 UV-I 434 W/m 0,0 km/h (0 Bft)
07.10.2013 11:40 14,8 C 13,3 C 81 % 1027,0 hPa 0,0 l/m 2 min 0 min 1,2 UV-I 448 W/m 0,0 km/h (0 Bft)
07.10.2013 11:45 15,4 C 13,9 C 79 % 1026,9 hPa 0,0 l/m 2 min 0 min 1,3 UV-I 448 W/m 0,0 km/h (0 Bft)
07.10.2013 11:50 15,8 C 14,4 C 78 % 1026,9 hPa 0,0 l/m 2 min 0 min 1,3 UV-I 436 W/m 0,0 km/h (0 Bft)
07.10.2013 11:55 16,2 C 14,4 C 77 % 1026,9 hPa 0,0 l/m 2 min 0 min 1,4 UV-I 439 W/m 0,0 km/h (0 Bft)
07.10.2013 12:00 16,1 C 14,4 C 76 % 1026,9 hPa 0,0 l/m 2 min 0 min 1,4 UV-I 446 W/m 0,0 km/h (0 Bft)
07.10.2013 12:02 16,2 C 14,4 C 75 % 1026,9 hPa 0,0 l/m 2 min 0 min 1,4 UV-I 446 W/m 0,0 km/h (0 Bft)
07.10.2013 12:06 16,2 C 15,0 C 75 % 1027,0 hPa 0,0 l/m 2 min 0 min 1,5 UV-I 457 W/m 0,0 km/h (0 Bft)
07.10.2013 12:08 16,3 C 15,0 C 75 % 1026,9 hPa 0,0 l/m 2 min 0 min 1,5 UV-I 459 W/m 0,0 km/h (0 Bft)
07.10.2013 12:10 16,4 C 15,0 C 74 % 1026,9 hPa 0,0 l/m 2 min 0 min 1,5 UV-I 455 W/m 0,0 km/h (0 Bft)
07.10.2013 12:12 16,4 C 15,0 C 75 % 1026,9 hPa 0,0 l/m 2 min 0 min 1,5 UV-I 471 W/m 0,0 km/h (0 Bft)
07.10.2013 12:14 16,5 C 15,0 C 73 % 1026,9 hPa 0,0 l/m 2 min 0 min 1,5 UV-I 464 W/m 0,0 km/h (0 Bft)
07.10.2013 12:16 16,6 C 15,0 C 74 % 1026,8 hPa 0,0 l/m 2 min 0 min 1,5 UV-I 455 W/m 0,0 km/h (0 Bft)
07.10.2013 12:18 16,7 C 15,0 C 73 % 1026,8 hPa 0,0 l/m 2 min 0 min 1,5 UV-I 464 W/m 0,0 km/h (0 Bft)
07.10.2013 12:20 16,7 C 15,0 C 74 % 1026,8 hPa 0,0 l/m 2 min 0 min 1,6 UV-I 466 W/m 0,0 km/h (0 Bft)
07.10.2013 12:22 16,8 C 15,0 C 73 % 1026,8 hPa 0,0 l/m 2 min 0 min 1,6 UV-I 466 W/m 0,0 km/h (0 Bft)
07.10.2013 12:24 16,9 C 15,6 C 72 % 1026,9 hPa 0,0 l/m 2 min 0 min 1,5 UV-I 454 W/m 0,0 km/h (0 Bft)
07.10.2013 12:26 16,8 C 15,0 C 71 % 1026,9 hPa 0,0 l/m 2 min 0 min 1,5 UV-I 455 W/m 0,0 km/h (0 Bft)
07.10.2013 12:28 16,8 C 15,0 C 72 % 1026,8 hPa 0,0 l/m 2 min 0 min 1,5 UV-I 466 W/m 0,0 km/h (0 Bft)
07.10.2013 12:30 16,8 C 15,0 C 71 % 1026,8 hPa 0,0 l/m 2 min 0 min 1,5 UV-I 480 W/m 0,0 km/h (0 Bft)
07.10.2013 12:32 16,9 C 15,6 C 72 % 1026,8 hPa 0,0 l/m 2 min 0 min 1,4 UV-I 471 W/m 0,0 km/h (0 Bft)
07.10.2013 12:34 17,0 C 15,6 C 72 % 1026,8 hPa 0,0 l/m 2 min 0 min 1,3 UV-I 459 W/m 0,0 km/h (0 Bft)
07.10.2013 12:36 17,2 C 15,6 C 72 % 1026,8 hPa 0,0 l/m 2 min 0 min 1,3 UV-I 464 W/m 0,0 km/h (0 Bft)
07.10.2013 12:38 17,3 C 15,6 C 72 % 1026,8 hPa 0,0 l/m 2 min 0 min 1,2 UV-I 476 W/m 0,0 km/h (0 Bft)
07.10.2013 12:40 17,3 C 15,6 C 70 % 1026,8 hPa 0,0 l/m 2 min 0 min 1,2 UV-I 475 W/m 0,0 km/h (0 Bft)
07.10.2013 12:42 17,3 C 15,6 C 71 % 1026,8 hPa 0,0 l/m 2 min 0 min 1,2 UV-I 475 W/m 0,0 km/h (0 Bft)
07.10.2013 12:44 17,2 C 15,6 C 71 % 1026,8 hPa 0,0 l/m 2 min 0 min 1,2 UV-I 476 W/m 0,0 km/h (0 Bft)
07.10.2013 12:46 17,3 C 15,6 C 73 % 1026,8 hPa 0,0 l/m 2 min 0 min 1,2 UV-I 473 W/m 0,0 km/h (0 Bft)
07.10.2013 12:48 17,5 C 15,6 C 72 % 1026,8 hPa 0,0 l/m 2 min 0 min 1,2 UV-I 478 W/m 0,0 km/h (0 Bft)
07.10.2013 12:50 17,6 C 15,6 C 71 % 1026,8 hPa 0,0 l/m 2 min 0 min 1,2 UV-I 485 W/m 0,0 km/h (0 Bft)
07.10.2013 12:52 17,6 C 15,6 C 70 % 1026,7 hPa 0,0 l/m 2 min 0 min 1,2 UV-I 485 W/m 0,0 km/h (0 Bft)
07.10.2013 12:54 17,7 C 15,6 C 69 % 1026,7 hPa 0,0 l/m 2 min 0 min 1,2 UV-I 482 W/m 0,0 km/h (0 Bft)
07.10.2013 12:56 17,6 C 16,1 C 69 % 1026,7 hPa 0,0 l/m 2 min 0 min 1,2 UV-I 473 W/m 0,0 km/h (0 Bft)
07.10.2013 12:58 17,5 C 16,1 C 70 % 1026,7 hPa 0,0 l/m 2 min 0 min 1,2 UV-I 482 W/m 0,0 km/h (0 Bft)
07.10.2013 13:00 17,5 C 16,1 C 70 % 1026,7 hPa 0,0 l/m 2 min 0 min 1,2 UV-I 483 W/m 0,0 km/h (0 Bft)
07.10.2013 13:02 17,6 C 15,6 C 70 % 1026,6 hPa 0,0 l/m 2 min 0 min 1,2 UV-I 492 W/m 0,0 km/h (0 Bft)
07.10.2013 13:06 17,7 C 16,1 C 70 % 1026,6 hPa 0,0 l/m 2 min 0 min 1,2 UV-I 492 W/m 0,0 km/h (0 Bft)
07.10.2013 13:08 17,8 C 16,1 C 70 % 1026,6 hPa 0,0 l/m 2 min 0 min 1,2 UV-I 480 W/m 0,0 km/h (0 Bft)
07.10.2013 13:10 17,8 C 16,1 C 69 % 1026,5 hPa 0,0 l/m 2 min 0 min 1,2 UV-I 485 W/m 0,0 km/h (0 Bft)
07.10.2013 13:12 17,8 C 16,1 C 69 % 1026,6 hPa 0,0 l/m 2 min 0 min 1,2 UV-I 487 W/m 0,0 km/h (0 Bft)
07.10.2013 13:14 17,8 C 16,1 C 69 % 1026,5 hPa 0,0 l/m 2 min 0 min 1,3 UV-I 490 W/m 0,0 km/h (0 Bft)
07.10.2013 13:16 17,7 C 16,1 C 69 % 1026,5 hPa 0,0 l/m 2 min 0 min 1,3 UV-I 489 W/m 0,0 km/h (0 Bft)
07.10.2013 13:18 17,9 C 16,1 C 70 % 1026,5 hPa 0,0 l/m 2 min 0 min 1,3 UV-I 496 W/m 0,0 km/h (0 Bft)
07.10.2013 13:20 17,8 C 16,1 C 69 % 1026,5 hPa 0,0 l/m 2 min 0 min 1,4 UV-I 497 W/m 0,0 km/h (0 Bft)
07.10.2013 13:22 17,8 C 16,1 C 69 % 1026,6 hPa 0,0 l/m 2 min 0 min 1,4 UV-I 496 W/m 0,0 km/h (0 Bft)
07.10.2013 13:24 17,7 C 16,1 C 67 % 1026,4 hPa 0,0 l/m 2 min 0 min 1,6 UV-I 490 W/m 0,0 km/h (0 Bft)
07.10.2013 13:26 17,7 C 16,1 C 69 % 1026,4 hPa 0,0 l/m 2 min 0 min 1,6 UV-I 492 W/m 0,0 km/h (0 Bft)
07.10.2013 13:28 17,8 C 16,1 C 68 % 1026,4 hPa 0,0 l/m 2 min 0 min 1,7 UV-I 485 W/m 0,0 km/h (0 Bft)
07.10.2013 13:30 17,8 C 16,1 C 68 % 1026,5 hPa 0,0 l/m 2 min 0 min 1,8 UV-I 480 W/m 0,0 km/h (0 Bft)
07.10.2013 13:32 17,9 C 16,1 C 68 % 1026,4 hPa 0,0 l/m 2 min 0 min 1,8 UV-I 485 W/m 0,0 km/h (0 Bft)
07.10.2013 13:34 18,1 C 16,1 C 68 % 1026,4 hPa 0,0 l/m 2 min 0 min 1,8 UV-I 494 W/m 0,0 km/h (0 Bft)
07.10.2013 13:36 18,2 C 16,1 C 66 % 1026,4 hPa 0,0 l/m 2 min 0 min 1,8 UV-I 490 W/m 0,0 km/h (0 Bft)
07.10.2013 13:38 18,2 C 16,1 C 66 % 1026,4 hPa 0,0 l/m 2 min 0 min 1,8 UV-I 489 W/m 0,0 km/h (0 Bft)
07.10.2013 13:40 18,2 C 16,7 C 67 % 1026,3 hPa 0,0 l/m 2 min 0 min 1,8 UV-I 494 W/m 0,0 km/h (0 Bft)
07.10.2013 13:42 18,2 C 16,1 C 65 % 1026,3 hPa 0,0 l/m 2 min 0 min 1,8 UV-I 494 W/m 0,0 km/h (0 Bft)
07.10.2013 13:44 18,1 C 16,1 C 66 % 1026,3 hPa 0,0 l/m 2 min 0 min 1,8 UV-I 496 W/m 0,0 km/h (0 Bft)
07.10.2013 13:46 18,0 C 16,1 C 66 % 1026,2 hPa 0,0 l/m 2 min 0 min 1,8 UV-I 490 W/m 0,0 km/h (0 Bft)
07.10.2013 13:48 18,0 C 16,1 C 66 % 1026,2 hPa 0,0 l/m 2 min 0 min 1,8 UV-I 494 W/m 0,0 km/h (0 Bft)
07.10.2013 13:50 18,2 C 16,7 C 67 % 1026,3 hPa 0,0 l/m 2 min 0 min 1,8 UV-I 487 W/m 0,0 km/h (0 Bft)
07.10.2013 13:52 18,2 C 16,7 C 66 % 1026,3 hPa 0,0 l/m 2 min 0 min 1,8 UV-I 496 W/m 0,0 km/h (0 Bft)
07.10.2013 13:54 18,2 C 16,7 C 66 % 1026,2 hPa 0,0 l/m 2 min 0 min 1,8 UV-I 494 W/m 0,0 km/h (0 Bft)
07.10.2013 13:56 18,2 C 16,7 C 67 % 1026,2 hPa 0,0 l/m 2 min 0 min 1,8 UV-I 496 W/m 0,0 km/h (0 Bft)
07.10.2013 13:58 18,1 C 16,7 C 65 % 1026,2 hPa 0,0 l/m 2 min 0 min 1,8 UV-I 494 W/m 0,0 km/h (0 Bft)
07.10.2013 14:00 18,2 C 16,7 C 68 % 1026,2 hPa 0,0 l/m 2 min 0 min 1,8 UV-I 496 W/m 0,0 km/h (0 Bft)
07.10.2013 14:02 18,4 C 16,7 C 66 % 1026,2 hPa 0,0 l/m 2 min 0 min 1,8 UV-I 497 W/m 0,0 km/h (0 Bft)
07.10.2013 14:06 18,2 C 16,7 C 66 % 1026,1 hPa 0,0 l/m 2 min 0 min 1,8 UV-I 489 W/m 0,0 km/h (0 Bft)
07.10.2013 14:08 18,2 C 16,7 C 67 % 1026,1 hPa 0,0 l/m 2 min 0 min 1,7 UV-I 483 W/m 0,0 km/h (0 Bft)
07.10.2013 14:10 18,2 C 16,7 C 65 % 1026,1 hPa 0,0 l/m 2 min 0 min 1,7 UV-I 476 W/m 0,0 km/h (0 Bft)
07.10.2013 14:12 18,2 C 16,7 C 66 % 1026,1 hPa 0,0 l/m 2 min 0 min 1,7 UV-I 459 W/m 0,0 km/h (0 Bft)
07.10.2013 14:14 18,1 C 16,7 C 66 % 1026,1 hPa 0,0 l/m 2 min 0 min 1,7 UV-I 445 W/m 0,0 km/h (0 Bft)
07.10.2013 14:16 18,2 C 16,7 C 65 % 1026,1 hPa 0,0 l/m 2 min 0 min 1,7 UV-I 475 W/m 0,0 km/h (0 Bft)
07.10.2013 14:18 18,1 C 16,7 C 65 % 1026,0 hPa 0,0 l/m 2 min 0 min 1,6 UV-I 434 W/m 0,0 km/h (0 Bft)
07.10.2013 14:20 18,2 C 16,7 C 66 % 1026,0 hPa 0,0 l/m 2 min 0 min 1,4 UV-I 468 W/m 0,0 km/h (0 Bft)
07.10.2013 14:22 18,3 C 16,7 C 65 % 1026,0 hPa 0,0 l/m 2 min 0 min 1,7 UV-I 476 W/m 0,0 km/h (0 Bft)
07.10.2013 14:24 18,3 C 16,7 C 64 % 1025,9 hPa 0,0 l/m 2 min 0 min 1,6 UV-I 446 W/m 0,0 km/h (0 Bft)
07.10.2013 14:26 18,2 C 16,7 C 65 % 1025,9 hPa 0,0 l/m 2 min 0 min 1,2 UV-I 464 W/m 0,0 km/h (0 Bft)
07.10.2013 14:28 18,1 C 16,7 C 65 % 1025,9 hPa 0,0 l/m 2 min 0 min 1,4 UV-I 381 W/m 0,0 km/h (0 Bft)
07.10.2013 14:30 18,1 C 16,1 C 67 % 1025,9 hPa 0,0 l/m 0 min 0 min 1,2 UV-I 162 W/m 0,0 km/h (0 Bft)
07.10.2013 14:32 17,9 C 16,1 C 65 % 1025,9 hPa 0,0 l/m 2 min 0 min 1,4 UV-I 294 W/m 0,0 km/h (0 Bft)
07.10.2013 14:34 17,8 C 16,1 C 67 % 1025,9 hPa 0,0 l/m 2 min 0 min 1,5 UV-I 446 W/m 0,0 km/h (0 Bft)
07.10.2013 14:36 17,8 C 16,7 C 68 % 1025,8 hPa 0,0 l/m 2 min 0 min 1,5 UV-I 475 W/m 0,0 km/h (0 Bft)
07.10.2013 14:38 17,9 C 16,7 C 66 % 1025,9 hPa 0,0 l/m 2 min 0 min 1,5 UV-I 483 W/m 0,0 km/h (0 Bft)
07.10.2013 14:40 17,9 C 16,7 C 66 % 1025,8 hPa 0,0 l/m 2 min 0 min 1,5 UV-I 445 W/m 0,0 km/h (0 Bft)
07.10.2013 14:42 17,9 C 16,7 C 66 % 1025,8 hPa 0,0 l/m 2 min 0 min 1,5 UV-I 480 W/m 0,0 km/h (0 Bft)
07.10.2013 14:44 18,1 C 16,7 C 65 % 1025,8 hPa 0,0 l/m 2 min 0 min 1,5 UV-I 480 W/m 0,0 km/h (0 Bft)
07.10.2013 14:46 18,1 C 16,7 C 66 % 1025,8 hPa 0,0 l/m 2 min 0 min 1,5 UV-I 489 W/m 0,0 km/h (0 Bft)
07.10.2013 14:48 18,2 C 17,2 C 66 % 1025,7 hPa 0,0 l/m 2 min 0 min 1,3 UV-I 501 W/m 0,0 km/h (0 Bft)
07.10.2013 14:50 18,2 C 17,2 C 66 % 1025,7 hPa 0,0 l/m 2 min 0 min 1,3 UV-I 422 W/m 0,0 km/h (0 Bft)
07.10.2013 14:52 18,1 C 16,7 C 66 % 1025,7 hPa 0,0 l/m 2 min 0 min 1,1 UV-I 283 W/m 0,0 km/h (0 Bft)
07.10.2013 14:54 17,9 C 16,7 C 65 % 1025,8 hPa 0,0 l/m 0 min 0 min 1,1 UV-I 213 W/m 0,0 km/h (0 Bft)
07.10.2013 14:56 17,6 C 16,7 C 66 % 1025,8 hPa 0,0 l/m 2 min 0 min 1,3 UV-I 323 W/m 0,0 km/h (0 Bft)
07.10.2013 14:58 17,6 C 16,7 C 68 % 1025,6 hPa 0,0 l/m 0 min 0 min 1,0 UV-I 200 W/m 0,0 km/h (0 Bft)
07.10.2013 15:00 17,7 C 16,7 C 68 % 1025,7 hPa 0,0 l/m 0 min 0 min 1,0 UV-I 192 W/m 0,0 km/h (0 Bft)
07.10.2013 15:02 17,7 C 16,7 C 68 % 1025,7 hPa 0,0 l/m 0 min 0 min 0,9 UV-I 183 W/m 0,0 km/h (0 Bft)
07.10.2013 15:06 17,7 C 16,7 C 68 % 1025,6 hPa 0,0 l/m 0 min 0 min 0,9 UV-I 176 W/m 0,0 km/h (0 Bft)
07.10.2013 15:08 17,6 C 16,7 C 70 % 1025,6 hPa 0,0 l/m 0 min 0 min 0,8 UV-I 174 W/m 0,0 km/h (0 Bft)
07.10.2013 15:10 17,6 C 16,7 C 68 % 1025,6 hPa 0,0 l/m 0 min 0 min 0,8 UV-I 176 W/m 0,0 km/h (0 Bft)
07.10.2013 15:12 17,5 C 16,7 C 68 % 1025,6 hPa 0,0 l/m 0 min 0 min 0,8 UV-I 181 W/m 0,0 km/h (0 Bft)
07.10.2013 15:14 17,5 C 16,7 C 67 % 1025,6 hPa 0,0 l/m 0 min 0 min 0,7 UV-I 176 W/m 0,0 km/h (0 Bft)
07.10.2013 15:16 17,5 C 16,7 C 68 % 1025,5 hPa 0,0 l/m 0 min 0 min 0,7 UV-I 171 W/m 0,0 km/h (0 Bft)
07.10.2013 15:18 17,6 C 16,7 C 70 % 1025,5 hPa 0,0 l/m 0 min 0 min 0,7 UV-I 169 W/m 0,0 km/h (0 Bft)
07.10.2013 15:20 17,6 C 16,7 C 70 % 1025,5 hPa 0,0 l/m 0 min 0 min 0,7 UV-I 179 W/m 0,0 km/h (0 Bft)
07.10.2013 15:22 17,6 C 16,7 C 70 % 1025,5 hPa 0,0 l/m 0 min 0 min 0,7 UV-I 192 W/m 0,0 km/h (0 Bft)
07.10.2013 15:24 17,6 C 16,7 C 70 % 1025,5 hPa 0,0 l/m 0 min 0 min 0,7 UV-I 193 W/m 0,0 km/h (0 Bft)
07.10.2013 15:26 17,6 C 16,7 C 68 % 1025,4 hPa 0,0 l/m 2 min 0 min 0,7 UV-I 287 W/m 0,0 km/h (0 Bft)
07.10.2013 15:28 17,6 C 16,7 C 70 % 1025,4 hPa 0,0 l/m 0 min 0 min 0,9 UV-I 243 W/m 0,0 km/h (0 Bft)
07.10.2013 15:30 17,8 C 16,7 C 70 % 1025,4 hPa 0,0 l/m 2 min 0 min 0,9 UV-I 401 W/m 0,0 km/h (0 Bft)
07.10.2013 15:32 18,0 C 17,2 C 69 % 1025,4 hPa 0,0 l/m 2 min 0 min 0,8 UV-I 295 W/m 0,0 km/h (0 Bft)
07.10.2013 15:34 18,2 C 17,2 C 68 % 1025,4 hPa 0,0 l/m 2 min 0 min 1,0 UV-I 445 W/m 0,0 km/h (0 Bft)
07.10.2013 15:36 18,3 C 17,2 C 66 % 1025,4 hPa 0,0 l/m 2 min 0 min 1,0 UV-I 466 W/m 0,0 km/h (0 Bft)
07.10.2013 15:38 18,3 C 17,2 C 66 % 1025,4 hPa 0,0 l/m 2 min 0 min 0,9 UV-I 420 W/m 0,0 km/h (0 Bft)
07.10.2013 15:40 18,4 C 17,2 C 66 % 1025,4 hPa 0,0 l/m 2 min 0 min 0,9 UV-I 411 W/m 0,0 km/h (0 Bft)
07.10.2013 15:42 18,4 C 17,2 C 67 % 1025,4 hPa 0,0 l/m 2 min 0 min 0,9 UV-I 394 W/m 0,0 km/h (0 Bft)
07.10.2013 15:44 18,3 C 17,2 C 66 % 1025,4 hPa 0,0 l/m 2 min 0 min 0,9 UV-I 415 W/m 0,0 km/h (0 Bft)
07.10.2013 15:46 18,3 C 17,8 C 67 % 1025,4 hPa 0,0 l/m 2 min 0 min 0,8 UV-I 415 W/m 0,0 km/h (0 Bft)
07.10.2013 15:48 18,4 C 17,2 C 67 % 1025,3 hPa 0,0 l/m 2 min 0 min 0,7 UV-I 258 W/m 0,0 km/h (0 Bft)
07.10.2013 15:50 18,4 C 17,2 C 66 % 1025,3 hPa 0,0 l/m 0 min 0 min 0,8 UV-I 204 W/m 0,0 km/h (0 Bft)
07.10.2013 15:52 18,4 C 17,2 C 66 % 1025,3 hPa 0,0 l/m 0 min 0 min 0,6 UV-I 204 W/m 0,0 km/h (0 Bft)
07.10.2013 15:54 18,3 C 17,2 C 67 % 1025,4 hPa 0,0 l/m 0 min 0 min 0,5 UV-I 132 W/m 0,0 km/h (0 Bft)
07.10.2013 15:56 18,1 C 16,7 C 67 % 1025,3 hPa 0,0 l/m 0 min 0 min 0,5 UV-I 134 W/m 0,0 km/h (0 Bft)
07.10.2013 15:58 18,0 C 16,7 C 67 % 1025,3 hPa 0,0 l/m 0 min 0 min 0,0 UV-I 132 W/m 0,0 km/h (0 Bft)
07.10.2013 16:00 17,9 C 16,7 C 67 % 1025,3 hPa 0,0 l/m 0 min 0 min 0,0 UV-I 141 W/m 0,0 km/h (0 Bft)
07.10.2013 16:02 17,8 C 16,7 C 69 % 1025,3 hPa 0,0 l/m 0 min 0 min 0,0 UV-I 149 W/m 0,0 km/h (0 Bft)
07.10.2013 16:06 17,8 C 16,7 C 69 % 1025,3 hPa 0,0 l/m 2 min 0 min 0,5 UV-I 334 W/m 0,0 km/h (0 Bft)
07.10.2013 16:08 17,9 C 16,7 C 69 % 1025,3 hPa 0,0 l/m 2 min 0 min 0,0 UV-I 274 W/m 0,0 km/h (0 Bft)
07.10.2013 16:10 17,9 C 16,7 C 69 % 1025,3 hPa 0,0 l/m 2 min 0 min 0,0 UV-I 243 W/m 0,0 km/h (0 Bft)
07.10.2013 16:12 17,9 C 16,7 C 68 % 1025,3 hPa 0,0 l/m 0 min 0 min 0,0 UV-I 148 W/m 0,0 km/h (0 Bft)
07.10.2013 16:14 17,9 C 16,7 C 68 % 1025,3 hPa 0,0 l/m 0 min 0 min 0,0 UV-I 160 W/m 0,0 km/h (0 Bft)
07.10.2013 16:16 17,8 C 16,7 C 67 % 1025,3 hPa 0,0 l/m 0 min 0 min 0,0 UV-I 169 W/m 0,0 km/h (0 Bft)
07.10.2013 16:18 17,8 C 16,7 C 67 % 1025,3 hPa 0,0 l/m 2 min 0 min 0,0 UV-I 246 W/m 0,0 km/h (0 Bft)
07.10.2013 16:20 17,8 C 16,7 C 69 % 1025,2 hPa 0,0 l/m 0 min 0 min 0,0 UV-I 188 W/m 0,0 km/h (0 Bft)
07.10.2013 16:22 17,9 C 16,7 C 67 % 1025,3 hPa 0,0 l/m 0 min 0 min 0,0 UV-I 181 W/m 0,0 km/h (0 Bft)
07.10.2013 16:24 17,9 C 16,7 C 67 % 1025,3 hPa 0,0 l/m 0 min 0 min 0,0 UV-I 160 W/m 0,0 km/h (0 Bft)
07.10.2013 16:26 17,8 C 16,7 C 68 % 1025,2 hPa 0,0 l/m 0 min 0 min 0,0 UV-I 141 W/m 0,0 km/h (0 Bft)
07.10.2013 16:28 17,8 C 16,7 C 70 % 1025,2 hPa 0,0 l/m 0 min 0 min 0,0 UV-I 123 W/m 0,0 km/h (0 Bft)
07.10.2013 16:30 17,7 C 16,7 C 71 % 1025,2 hPa 0,0 l/m 0 min 0 min 0,0 UV-I 107 W/m 0,0 km/h (0 Bft)
07.10.2013 16:32 17,6 C 16,1 C 69 % 1025,2 hPa 0,0 l/m 0 min 0 min 0,0 UV-I 104 W/m 0,0 km/h (0 Bft)
07.10.2013 16:34 17,6 C 16,1 C 69 % 1025,1 hPa 0,0 l/m 0 min 0 min 0,0 UV-I 102 W/m 0,0 km/h (0 Bft)
07.10.2013 16:36 17,5 C 16,1 C 70 % 1025,1 hPa 0,0 l/m 0 min 0 min 0,0 UV-I 104 W/m 0,0 km/h (0 Bft)
07.10.2013 16:38 17,4 C 16,1 C 71 % 1025,1 hPa 0,0 l/m 0 min 0 min 0,0 UV-I 105 W/m 0,0 km/h (0 Bft)
07.10.2013 16:40 17,3 C 16,1 C 72 % 1025,1 hPa 0,0 l/m 0 min 0 min 0,0 UV-I 107 W/m 0,0 km/h (0 Bft)
07.10.2013 16:42 17,3 C 16,1 C 72 % 1025,1 hPa 0,0 l/m 0 min 0 min 0,0 UV-I 104 W/m 0,0 km/h (0 Bft)
07.10.2013 16:44 17,2 C 16,1 C 71 % 1025,1 hPa 0,0 l/m 0 min 0 min 0,0 UV-I 105 W/m 0,0 km/h (0 Bft)
07.10.2013 16:46 17,3 C 16,1 C 70 % 1025,1 hPa 0,0 l/m 0 min 0 min 0,0 UV-I 107 W/m 0,0 km/h (0 Bft)
07.10.2013 16:48 17,3 C 16,1 C 71 % 1025,1 hPa 0,0 l/m 0 min 0 min 0,0 UV-I 105 W/m 0,0 km/h (0 Bft)
07.10.2013 16:50 17,3 C 16,1 C 71 % 1025,1 hPa 0,0 l/m 0 min 0 min 0,0 UV-I 105 W/m 0,0 km/h (0 Bft)
07.10.2013 16:52 17,3 C 16,1 C 70 % 1025,0 hPa 0,0 l/m 0 min 0 min 0,0 UV-I 114 W/m 0,0 km/h (0 Bft)
07.10.2013 16:54 17,3 C 16,1 C 71 % 1025,0 hPa 0,0 l/m 0 min 0 min 0,0 UV-I 121 W/m 0,0 km/h (0 Bft)
07.10.2013 16:56 17,3 C 16,1 C 70 % 1025,0 hPa 0,0 l/m 0 min 0 min 0,0 UV-I 130 W/m 0,0 km/h (0 Bft)
07.10.2013 16:58 17,3 C 16,1 C 72 % 1025,0 hPa 0,0 l/m 0 min 0 min 0,0 UV-I 125 W/m 0,0 km/h (0 Bft)
07.10.2013 17:00 17,3 C 15,6 C 72 % 1025,0 hPa 0,0 l/m 0 min 0 min 0,0 UV-I 139 W/m 0,0 km/h (0 Bft)
07.10.2013 17:02 17,3 C 15,6 C 72 % 1025,0 hPa 0,0 l/m 2 min 0 min 0,0 UV-I 172 W/m 0,0 km/h (0 Bft)
07.10.2013 17:06 17,4 C 15,6 C 71 % 1024,9 hPa 0,0 l/m 2 min 0 min 0,0 UV-I 162 W/m 0,0 km/h (0 Bft)
07.10.2013 17:08 17,4 C 15,6 C 72 % 1024,9 hPa 0,0 l/m 0 min 0 min 0,0 UV-I 83 W/m 0,0 km/h (0 Bft)
07.10.2013 17:10 17,4 C 15,6 C 73 % 1024,9 hPa 0,0 l/m 0 min 0 min 0,0 UV-I 83 W/m 0,0 km/h (0 Bft)
07.10.2013 17:12 17,4 C 15,6 C 70 % 1025,0 hPa 0,0 l/m 0 min 0 min 0,0 UV-I 77 W/m 0,0 km/h (0 Bft)
07.10.2013 17:14 17,2 C 15,6 C 71 % 1025,0 hPa 0,0 l/m 0 min 0 min 0,0 UV-I 77 W/m 0,0 km/h (0 Bft)
07.10.2013 17:16 17,2 C 15,0 C 71 % 1024,9 hPa 0,0 l/m 0 min 0 min 0,0 UV-I 74 W/m 0,0 km/h (0 Bft)
07.10.2013 17:18 17,1 C 15,0 C 70 % 1024,9 hPa 0,0 l/m 0 min 0 min 0,0 UV-I 69 W/m 0,0 km/h (0 Bft)
07.10.2013 17:20 17,0 C 15,0 C 72 % 1024,9 hPa 0,0 l/m 0 min 0 min 0,0 UV-I 67 W/m 0,0 km/h (0 Bft)
07.10.2013 17:22 16,9 C 15,0 C 73 % 1024,9 hPa 0,0 l/m 0 min 0 min 0,0 UV-I 63 W/m 0,0 km/h (0 Bft)
07.10.2013 17:24 16,8 C 15,0 C 73 % 1025,0 hPa 0,0 l/m 0 min 0 min 0,0 UV-I 62 W/m 0,0 km/h (0 Bft)
07.10.2013 17:26 16,8 C 14,4 C 74 % 1025,0 hPa 0,0 l/m 0 min 0 min 0,0 UV-I 63 W/m 0,0 km/h (0 Bft)
07.10.2013 17:28 16,7 C 14,4 C 74 % 1025,0 hPa 0,0 l/m 0 min 0 min 0,0 UV-I 91 W/m 0,0 km/h (0 Bft)
07.10.2013 17:30 16,7 C 14,4 C 74 % 1024,9 hPa 0,0 l/m 0 min 0 min 0,0 UV-I 105 W/m 0,0 km/h (0 Bft)
07.10.2013 17:32 16,7 C 14,4 C 74 % 1025,0 hPa 0,0 l/m 0 min 0 min 0,0 UV-I 105 W/m 0,0 km/h (0 Bft)
07.10.2013 17:34 16,7 C 14,4 C 74 % 1024,9 hPa 0,0 l/m 0 min 0 min 0,0 UV-I 91 W/m 0,0 km/h (0 Bft)
07.10.2013 17:36 16,7 C 14,4 C 74 % 1024,9 hPa 0,0 l/m 0 min 0 min 0,0 UV-I 90 W/m 0,0 km/h (0 Bft)
07.10.2013 17:38 16,7 C 13,9 C 74 % 1024,9 hPa 0,0 l/m 0 min 0 min 0,0 UV-I 86 W/m 0,0 km/h (0 Bft)
07.10.2013 17:40 16,6 C 13,9 C 74 % 1024,9 hPa 0,0 l/m 0 min 0 min 0,0 UV-I 62 W/m 0,0 km/h (0 Bft)
07.10.2013 17:42 16,6 C 13,9 C 74 % 1024,9 hPa 0,0 l/m 0 min 0 min 0,0 UV-I 76 W/m 0,0 km/h (0 Bft)
07.10.2013 17:44 16,5 C 13,9 C 75 % 1024,9 hPa 0,0 l/m 0 min 0 min 0,0 UV-I 69 W/m 0,0 km/h (0 Bft)
07.10.2013 17:46 16,4 C 13,9 C 76 % 1024,9 hPa 0,0 l/m 0 min 0 min 0,0 UV-I 67 W/m 0,0 km/h (0 Bft)
07.10.2013 17:48 16,4 C 13,9 C 76 % 1024,9 hPa 0,0 l/m 0 min 0 min 0,0 UV-I 76 W/m 0,0 km/h (0 Bft)
07.10.2013 17:50 16,3 C 13,9 C 76 % 1024,9 hPa 0,0 l/m 0 min 0 min 0,0 UV-I 67 W/m 0,0 km/h (0 Bft)
07.10.2013 17:52 16,3 C 13,9 C 77 % 1024,9 hPa 0,0 l/m 0 min 0 min 0,0 UV-I 58 W/m 0,0 km/h (0 Bft)
07.10.2013 17:54 16,2 C 13,9 C 77 % 1025,0 hPa 0,0 l/m 0 min 0 min 0,0 UV-I 58 W/m 0,0 km/h (0 Bft)
07.10.2013 17:56 16,2 C 13,9 C 76 % 1024,9 hPa 0,0 l/m 0 min 0 min 0,0 UV-I 51 W/m 0,0 km/h (0 Bft)
07.10.2013 17:58 16,2 C 13,9 C 77 % 1024,9 hPa 0,0 l/m 0 min 0 min 0,0 UV-I 47 W/m 0,0 km/h (0 Bft)
07.10.2013 18:00 16,1 C 13,3 C 77 % 1024,9 hPa 0,0 l/m 0 min 0 min 0,0 UV-I 44 W/m 0,0 km/h (0 Bft)
07.10.2013 18:02 16,2 C 13,3 C 77 % 1024,9 hPa 0,0 l/m 0 min 0 min 0,0 UV-I 46 W/m 0,0 km/h (0 Bft)
07.10.2013 18:06 16,1 C 13,3 C 77 % 1025,0 hPa 0,0 l/m 0 min 0 min 0,0 UV-I 37 W/m 0,0 km/h (0 Bft)
07.10.2013 18:08 15,9 C 13,3 C 78 % 1025,0 hPa 0,0 l/m 0 min 0 min 0,0 UV-I 33 W/m 0,0 km/h (0 Bft)
07.10.2013 18:10 15,9 C 13,3 C 78 % 1024,9 hPa 0,0 l/m 0 min 0 min 0,0 UV-I 32 W/m 0,0 km/h (0 Bft)
07.10.2013 18:12 15,8 C 13,3 C 78 % 1024,9 hPa 0,0 l/m 0 min 0 min 0,0 UV-I 30 W/m 0,0 km/h (0 Bft)
07.10.2013 18:14 15,8 C 13,3 C 79 % 1025,0 hPa 0,0 l/m 0 min 0 min 0,0 UV-I 28 W/m 0,0 km/h (0 Bft)
07.10.2013 18:16 15,7 C 13,3 C 79 % 1024,9 hPa 0,0 l/m 0 min 0 min 0,0 UV-I 26 W/m 0,0 km/h (0 Bft)
07.10.2013 18:18 15,7 C 12,8 C 79 % 1024,9 hPa 0,0 l/m 0 min 0 min 0,0 UV-I 25 W/m 0,0 km/h (0 Bft)
07.10.2013 18:20 15,5 C 12,8 C 80 % 1025,0 hPa 0,0 l/m 0 min 0 min 0,0 UV-I 23 W/m 0,0 km/h (0 Bft)
07.10.2013 18:22 15,4 C 12,8 C 80 % 1025,0 hPa 0,0 l/m 0 min 0 min 0,0 UV-I 21 W/m 0,0 km/h (0 Bft)
07.10.2013 18:24 15,3 C 12,8 C 81 % 1025,0 hPa 0,0 l/m 0 min 0 min 0,0 UV-I 21 W/m 0,0 km/h (0 Bft)
07.10.2013 18:26 15,2 C 12,8 C 82 % 1024,9 hPa 0,0 l/m 0 min 0 min 0,0 UV-I 21 W/m 0,0 km/h (0 Bft)
07.10.2013 18:28 15,1 C 12,8 C 82 % 1025,0 hPa 0,0 l/m 0 min 0 min 0,0 UV-I 19 W/m 0,0 km/h (0 Bft)
07.10.2013 18:30 15,0 C 12,8 C 83 % 1024,9 hPa 0,0 l/m 0 min 0 min 0,0 UV-I 18 W/m 0,0 km/h (0 Bft)
07.10.2013 18:32 14,9 C 12,2 C 83 % 1025,0 hPa 0,0 l/m 0 min 0 min 0,0 UV-I 16 W/m 0,0 km/h (0 Bft)
07.10.2013 18:34 14,8 C 12,2 C 83 % 1025,0 hPa 0,0 l/m 0 min 0 min 0,0 UV-I 16 W/m 0,0 km/h (0 Bft)
07.10.2013 18:36 14,8 C 12,2 C 83 % 1025,0 hPa 0,0 l/m 0 min 0 min 0,0 UV-I 14 W/m 0,0 km/h (0 Bft)
07.10.2013 18:38 14,7 C 12,2 C 83 % 1025,0 hPa 0,0 l/m 0 min 0 min 0,0 UV-I 14 W/m 0,0 km/h (0 Bft)
07.10.2013 18:40 14,6 C 12,2 C 84 % 1025,0 hPa 0,0 l/m 0 min 0 min 0,0 UV-I 12 W/m 0,0 km/h (0 Bft)
07.10.2013 18:42 14,4 C 12,2 C 84 % 1025,0 hPa 0,0 l/m 0 min 0 min 0,0 UV-I 12 W/m 0,0 km/h (0 Bft)
07.10.2013 18:44 14,4 C 12,2 C 84 % 1025,0 hPa 0,0 l/m 0 min 0 min 0,0 UV-I 11 W/m 0,0 km/h (0 Bft)
07.10.2013 18:46 14,2 C 11,7 C 85 % 1025,0 hPa 0,0 l/m 0 min 0 min 0,0 UV-I 9 W/m 0,0 km/h (0 Bft)
07.10.2013 18:48 14,2 C 11,7 C 85 % 1025,0 hPa 0,0 l/m 0 min 0 min 0,0 UV-I 9 W/m 0,0 km/h (0 Bft)
07.10.2013 18:50 14,2 C 11,7 C 85 % 1025,0 hPa 0,0 l/m 0 min 0 min 0,0 UV-I 7 W/m 0,0 km/h (0 Bft)
07.10.2013 18:52 14,1 C 11,7 C 86 % 1025,0 hPa 0,0 l/m 0 min 0 min 0,0 UV-I 7 W/m 0,0 km/h (0 Bft)
07.10.2013 18:54 13,9 C 11,7 C 86 % 1025,0 hPa 0,0 l/m 0 min 0 min 0,0 UV-I 7 W/m 0,0 km/h (0 Bft)
07.10.2013 18:56 13,8 C 11,7 C 86 % 1025,0 hPa 0,0 l/m 0 min 0 min 0,0 UV-I 5 W/m 0,0 km/h (0 Bft)
07.10.2013 18:58 13,7 C 11,7 C 87 % 1025,1 hPa 0,0 l/m 0 min 0 min 0,0 UV-I 5 W/m 0,0 km/h (0 Bft)
07.10.2013 19:00 13,6 C 11,1 C 87 % 1025,0 hPa 0,0 l/m 0 min 0 min 0,0 UV-I 5 W/m 0,0 km/h (0 Bft)
07.10.2013 19:02 13,5 C 11,1 C 87 % 1025,1 hPa 0,0 l/m 0 min 0 min 0,0 UV-I 0 W/m 0,0 km/h (0 Bft)
07.10.2013 19:06 13,3 C 11,1 C 88 % 1025,1 hPa 0,0 l/m 0 min 0 min 0,0 UV-I 0 W/m 0,0 km/h (0 Bft)
07.10.2013 19:08 13,3 C 11,1 C 88 % 1025,1 hPa 0,0 l/m 0 min 0 min 0,0 UV-I 0 W/m 0,0 km/h (0 Bft)
07.10.2013 19:10 13,2 C 11,1 C 88 % 1025,2 hPa 0,0 l/m 0 min 0 min 0,0 UV-I 0 W/m 0,0 km/h (0 Bft)
07.10.2013 19:12 13,1 C 11,1 C 88 % 1025,1 hPa 0,0 l/m 0 min 0 min 0,0 UV-I 0 W/m 0,0 km/h (0 Bft)
07.10.2013 19:14 13,1 C 10,6 C 88 % 1025,2 hPa 0,0 l/m 0 min 0 min 0,0 UV-I 0 W/m 0,0 km/h (0 Bft)
07.10.2013 19:16 13,0 C 10,6 C 89 % 1025,2 hPa 0,0 l/m 0 min 0 min 0,0 UV-I 0 W/m 0,0 km/h (0 Bft)
07.10.2013 19:18 12,9 C 10,6 C 89 % 1025,2 hPa 0,0 l/m 0 min 0 min 0,0 UV-I 0 W/m 0,0 km/h (0 Bft)
07.10.2013 19:20 12,9 C 10,6 C 89 % 1025,2 hPa 0,0 l/m 0 min 0 min 0,0 UV-I 0 W/m 0,0 km/h (0 Bft)
07.10.2013 19:22 12,8 C 10,6 C 89 % 1025,2 hPa 0,0 l/m 0 min 0 min 0,0 UV-I 0 W/m 0,0 km/h (0 Bft)
07.10.2013 19:24 12,8 C 10,6 C 90 % 1025,2 hPa 0,0 l/m 0 min 0 min 0,0 UV-I 0 W/m 0,0 km/h (0 Bft)
07.10.2013 19:26 12,7 C 10,6 C 90 % 1025,2 hPa 0,0 l/m 0 min 0 min 0,0 UV-I 0 W/m 0,0 km/h (0 Bft)
07.10.2013 19:28 12,7 C 10,6 C 90 % 1025,2 hPa 0,0 l/m 0 min 0 min 0,0 UV-I 0 W/m 0,0 km/h (0 Bft)
07.10.2013 19:30 12,6 C 10,6 C 90 % 1025,2 hPa 0,0 l/m 0 min 0 min 0,0 UV-I 0 W/m 0,0 km/h (0 Bft)
07.10.2013 19:32 12,6 C 10,6 C 90 % 1025,2 hPa 0,0 l/m 0 min 0 min 0,0 UV-I 0 W/m 0,0 km/h (0 Bft)
07.10.2013 19:34 12,6 C 10,6 C 90 % 1025,2 hPa 0,0 l/m 0 min 0 min 0,0 UV-I 0 W/m 0,0 km/h (0 Bft)
07.10.2013 19:36 12,4 C 10,6 C 90 % 1025,2 hPa 0,0 l/m 0 min 0 min 0,0 UV-I 0 W/m 0,0 km/h (0 Bft)
07.10.2013 19:38 12,4 C 10,0 C 91 % 1025,2 hPa 0,0 l/m 0 min 0 min 0,0 UV-I 0 W/m 0,0 km/h (0 Bft)
07.10.2013 19:40 12,3 C 10,0 C 91 % 1025,2 hPa 0,0 l/m 0 min 0 min 0,0 UV-I 0 W/m 0,0 km/h (0 Bft)
07.10.2013 19:42 12,3 C 10,0 C 91 % 1025,2 hPa 0,0 l/m 0 min 0 min 0,0 UV-I 0 W/m 0,0 km/h (0 Bft)
07.10.2013 19:44 12,3 C 10,0 C 91 % 1025,2 hPa 0,0 l/m 0 min 0 min 0,0 UV-I 0 W/m 0,0 km/h (0 Bft)
07.10.2013 19:46 12,3 C 10,0 C 91 % 1025,3 hPa 0,0 l/m 0 min 0 min 0,0 UV-I 0 W/m 0,0 km/h (0 Bft)
07.10.2013 19:48 12,3 C 10,0 C 91 % 1025,3 hPa 0,0 l/m 0 min 0 min 0,0 UV-I 0 W/m 0,0 km/h (0 Bft)
07.10.2013 19:50 12,2 C 10,0 C 91 % 1025,2 hPa 0,0 l/m 0 min 0 min 0,0 UV-I 0 W/m 0,0 km/h (0 Bft)
07.10.2013 19:52 12,2 C 10,0 C 91 % 1025,3 hPa 0,0 l/m 0 min 0 min 0,0 UV-I 0 W/m 0,0 km/h (0 Bft)
07.10.2013 19:54 12,1 C 10,0 C 91 % 1025,3 hPa 0,0 l/m 0 min 0 min 0,0 UV-I 0 W/m 0,0 km/h (0 Bft)
07.10.2013 19:56 12,1 C 10,0 C 92 % 1025,3 hPa 0,0 l/m 0 min 0 min 0,0 UV-I 0 W/m 0,0 km/h (0 Bft)
07.10.2013 19:58 12,0 C 10,0 C 92 % 1025,3 hPa 0,0 l/m 0 min 0 min 0,0 UV-I 0 W/m 0,0 km/h (0 Bft)
07.10.2013 20:00 12,0 C 10,0 C 92 % 1025,3 hPa 0,0 l/m 0 min 0 min 0,0 UV-I 0 W/m 0,0 km/h (0 Bft)
07.10.2013 20:02 11,9 C 10,0 C 92 % 1025,4 hPa 0,0 l/m 0 min 0 min 0,0 UV-I 0 W/m 0,0 km/h (0 Bft)
07.10.2013 20:06 11,9 C 10,0 C 92 % 1025,4 hPa 0,0 l/m 0 min 0 min 0,0 UV-I 0 W/m 0,0 km/h (0 Bft)
07.10.2013 20:08 11,8 C 10,0 C 92 % 1025,5 hPa 0,0 l/m 0 min 0 min 0,0 UV-I 0 W/m 0,0 km/h (0 Bft)
07.10.2013 20:10 11,7 C 10,0 C 92 % 1025,5 hPa 0,0 l/m 0 min 0 min 0,0 UV-I 0 W/m 0,0 km/h (0 Bft)
07.10.2013 20:12 11,7 C 9,4 C 92 % 1025,5 hPa 0,0 l/m 0 min 0 min 0,0 UV-I 0 W/m 0,0 km/h (0 Bft)
07.10.2013 20:14 11,7 C 9,4 C 93 % 1025,6 hPa 0,0 l/m 0 min 0 min 0,0 UV-I 0 W/m 0,0 km/h (0 Bft)
07.10.2013 20:16 11,6 C 9,4 C 93 % 1025,6 hPa 0,0 l/m 0 min 0 min 0,0 UV-I 0 W/m 0,0 km/h (0 Bft)
07.10.2013 20:18 11,6 C 9,4 C 93 % 1025,5 hPa 0,0 l/m 0 min 0 min 0,0 UV-I 0 W/m 0,0 km/h (0 Bft)
07.10.2013 20:20 11,6 C 9,4 C 93 % 1025,5 hPa 0,0 l/m 0 min 0 min 0,0 UV-I 0 W/m 0,0 km/h (0 Bft)
07.10.2013 20:22 11,5 C 9,4 C 93 % 1025,6 hPa 0,0 l/m 0 min 0 min 0,0 UV-I 0 W/m 0,0 km/h (0 Bft)
07.10.2013 20:24 11,4 C 9,4 C 93 % 1025,6 hPa 0,0 l/m 0 min 0 min 0,0 UV-I 0 W/m 0,0 km/h (0 Bft)
07.10.2013 20:26 11,4 C 9,4 C 93 % 1025,5 hPa 0,0 l/m 0 min 0 min 0,0 UV-I 0 W/m 0,0 km/h (0 Bft)
07.10.2013 20:28 11,3 C 9,4 C 93 % 1025,5 hPa 0,0 l/m 0 min 0 min 0,0 UV-I 0 W/m 0,0 km/h (0 Bft)
07.10.2013 20:30 11,3 C 9,4 C 94 % 1025,6 hPa 0,0 l/m 0 min 0 min 0,0 UV-I 0 W/m 0,0 km/h (0 Bft)
07.10.2013 20:32 11,3 C 9,4 C 94 % 1025,5 hPa 0,0 l/m 0 min 0 min 0,0 UV-I 0 W/m 0,0 km/h (0 Bft)
07.10.2013 20:34 11,3 C 9,4 C 94 % 1025,5 hPa 0,0 l/m 0 min 0 min 0,0 UV-I 0 W/m 0,0 km/h (0 Bft)
07.10.2013 20:36 11,3 C 9,4 C 94 % 1025,5 hPa 0,0 l/m 0 min 0 min 0,0 UV-I 0 W/m 0,0 km/h (0 Bft)
07.10.2013 20:38 11,3 C 9,4 C 94 % 1025,5 hPa 0,0 l/m 0 min 0 min 0,0 UV-I 0 W/m 0,0 km/h (0 Bft)
07.10.2013 20:40 11,3 C 9,4 C 94 % 1025,6 hPa 0,0 l/m 0 min 0 min 0,0 UV-I 0 W/m 0,0 km/h (0 Bft)
07.10.2013 20:42 11,2 C 9,4 C 94 % 1025,6 hPa 0,0 l/m 0 min 0 min 0,0 UV-I 0 W/m 0,0 km/h (0 Bft)
07.10.2013 20:44 11,2 C 9,4 C 94 % 1025,5 hPa 0,0 l/m 0 min 0 min 0,0 UV-I 0 W/m 0,0 km/h (0 Bft)
07.10.2013 20:46 11,2 C 9,4 C 94 % 1025,5 hPa 0,0 l/m 0 min 0 min 0,0 UV-I 0 W/m 0,0 km/h (0 Bft)
07.10.2013 20:48 11,1 C 9,4 C 94 % 1025,5 hPa 0,0 l/m 0 min 0 min 0,0 UV-I 0 W/m 0,0 km/h (0 Bft)
07.10.2013 20:50 11,1 C 9,4 C 94 % 1025,5 hPa 0,0 l/m 0 min 0 min 0,0 UV-I 0 W/m 0,0 km/h (0 Bft)
07.10.2013 20:52 11,1 C 9,4 C 95 % 1025,5 hPa 0,0 l/m 0 min 0 min 0,0 UV-I 0 W/m 0,0 km/h (0 Bft)
07.10.2013 20:54 11,0 C 9,4 C 94 % 1025,6 hPa 0,0 l/m 0 min 0 min 0,0 UV-I 0 W/m 0,0 km/h (0 Bft)
07.10.2013 20:56 10,9 C 8,9 C 94 % 1025,6 hPa 0,0 l/m 0 min 0 min 0,0 UV-I 0 W/m 0,0 km/h (0 Bft)
07.10.2013 20:58 10,9 C 8,9 C 95 % 1025,5 hPa 0,0 l/m 0 min 0 min 0,0 UV-I 0 W/m 0,0 km/h (0 Bft)
07.10.2013 21:00 10,8 C 8,9 C 95 % 1025,5 hPa 0,0 l/m 0 min 0 min 0,0 UV-I 0 W/m 0,0 km/h (0 Bft)
07.10.2013 21:02 10,8 C 8,9 C 95 % 1025,5 hPa 0,0 l/m 0 min 0 min 0,0 UV-I 0 W/m 0,0 km/h (0 Bft)
07.10.2013 21:06 10,8 C 8,9 C 95 % 1025,6 hPa 0,0 l/m 0 min 0 min 0,0 UV-I 0 W/m 0,0 km/h (0 Bft)
07.10.2013 21:08 10,8 C 8,9 C 95 % 1025,7 hPa 0,0 l/m 0 min 0 min 0,0 UV-I 0 W/m 0,0 km/h (0 Bft)
07.10.2013 21:10 10,8 C 8,9 C 95 % 1025,7 hPa 0,0 l/m 0 min 0 min 0,0 UV-I 0 W/m 0,0 km/h (0 Bft)
07.10.2013 21:12 10,8 C 8,9 C 95 % 1025,6 hPa 0,0 l/m 0 min 0 min 0,0 UV-I 0 W/m 0,0 km/h (0 Bft)
07.10.2013 21:14 10,8 C 8,9 C 95 % 1025,7 hPa 0,0 l/m 0 min 0 min 0,0 UV-I 0 W/m 0,0 km/h (0 Bft)
07.10.2013 21:16 10,7 C 8,9 C 95 % 1025,6 hPa 0,0 l/m 0 min 0 min 0,0 UV-I 0 W/m 0,0 km/h (0 Bft)
07.10.2013 21:18 10,7 C 8,9 C 95 % 1025,6 hPa 0,0 l/m 0 min 0 min 0,0 UV-I 0 W/m 0,0 km/h (0 Bft)
07.10.2013 21:20 10,7 C 8,9 C 95 % 1025,7 hPa 0,0 l/m 0 min 0 min 0,0 UV-I 0 W/m 0,0 km/h (0 Bft)
07.10.2013 21:22 10,6 C 8,9 C 95 % 1025,7 hPa 0,0 l/m 0 min 0 min 0,0 UV-I 0 W/m 0,0 km/h (0 Bft)
07.10.2013 21:24 10,6 C 8,9 C 95 % 1025,7 hPa 0,0 l/m 0 min 0 min 0,0 UV-I 0 W/m 0,0 km/h (0 Bft)
07.10.2013 21:26 10,6 C 8,9 C 95 % 1025,7 hPa 0,0 l/m 0 min 0 min 0,0 UV-I 0 W/m 0,0 km/h (0 Bft)
07.10.2013 21:28 10,6 C 8,9 C 96 % 1025,6 hPa 0,0 l/m 0 min 0 min 0,0 UV-I 0 W/m 0,0 km/h (0 Bft)
07.10.2013 21:30 10,5 C 8,9 C 96 % 1025,7 hPa 0,0 l/m 0 min 0 min 0,0 UV-I 0 W/m 0,0 km/h (0 Bft)
07.10.2013 21:32 10,4 C 8,9 C 96 % 1025,7 hPa 0,0 l/m 0 min 0 min 0,0 UV-I 0 W/m 0,0 km/h (0 Bft)
07.10.2013 21:34 10,4 C 8,9 C 96 % 1025,7 hPa 0,0 l/m 0 min 0 min 0,0 UV-I 0 W/m 0,0 km/h (0 Bft)
07.10.2013 21:36 10,4 C 8,9 C 95 % 1025,7 hPa 0,0 l/m 0 min 0 min 0,0 UV-I 0 W/m 0,0 km/h (0 Bft)
07.10.2013 21:38 10,3 C 8,9 C 96 % 1025,7 hPa 0,0 l/m 0 min 0 min 0,0 UV-I 0 W/m 0,0 km/h (0 Bft)
07.10.2013 21:40 10,3 C 8,9 C 96 % 1025,8 hPa 0,0 l/m 0 min 0 min 0,0 UV-I 0 W/m 0,0 km/h (0 Bft)
07.10.2013 21:42 10,3 C 8,9 C 96 % 1025,7 hPa 0,0 l/m 0 min 0 min 0,0 UV-I 0 W/m 0,0 km/h (0 Bft)
07.10.2013 21:44 10,3 C 8,9 C 96 % 1025,8 hPa 0,0 l/m 0 min 0 min 0,0 UV-I 0 W/m 0,0 km/h (0 Bft)
07.10.2013 21:46 10,3 C 8,9 C 96 % 1025,7 hPa 0,0 l/m 0 min 0 min 0,0 UV-I 0 W/m 0,0 km/h (0 Bft)
07.10.2013 21:48 10,3 C 8,3 C 96 % 1025,7 hPa 0,0 l/m 0 min 0 min 0,0 UV-I 0 W/m 0,0 km/h (0 Bft)
07.10.2013 21:50 10,2 C 8,3 C 96 % 1025,8 hPa 0,0 l/m 0 min 0 min 0,0 UV-I 0 W/m 0,0 km/h (0 Bft)
07.10.2013 21:52 10,2 C 8,3 C 96 % 1025,8 hPa 0,0 l/m 0 min 0 min 0,0 UV-I 0 W/m 0,0 km/h (0 Bft)
07.10.2013 21:54 10,1 C 8,3 C 96 % 1025,8 hPa 0,0 l/m 0 min 0 min 0,0 UV-I 0 W/m 0,0 km/h (0 Bft)
07.10.2013 21:56 10,1 C 8,3 C 96 % 1025,8 hPa 0,0 l/m 0 min 0 min 0,0 UV-I 0 W/m 0,0 km/h (0 Bft)
07.10.2013 21:58 10,1 C 8,3 C 96 % 1025,9 hPa 0,0 l/m 0 min 0 min 0,0 UV-I 0 W/m 0,0 km/h (0 Bft)
07.10.2013 22:00 10,1 C 8,3 C 96 % 1025,8 hPa 0,0 l/m 0 min 0 min 0,0 UV-I 0 W/m 0,0 km/h (0 Bft)
07.10.2013 22:02 10,1 C 8,3 C 96 % 1025,8 hPa 0,0 l/m 0 min 0 min 0,0 UV-I 0 W/m 0,0 km/h (0 Bft)
07.10.2013 22:06 10,1 C 8,3 C 96 % 1025,8 hPa 0,0 l/m 0 min 0 min 0,0 UV-I 0 W/m 0,0 km/h (0 Bft)
07.10.2013 22:08 10,0 C 8,3 C 96 % 1025,9 hPa 0,0 l/m 0 min 0 min 0,0 UV-I 0 W/m 0,0 km/h (0 Bft)
07.10.2013 22:10 10,0 C 8,3 C 96 % 1025,9 hPa 0,0 l/m 0 min 0 min 0,0 UV-I 0 W/m 0,0 km/h (0 Bft)
07.10.2013 22:12 9,9 C 8,3 C 96 % 1025,8 hPa 0,0 l/m 0 min 0 min 0,0 UV-I 0 W/m 0,0 km/h (0 Bft)
07.10.2013 22:14 9,9 C 8,3 C 96 % 1025,8 hPa 0,0 l/m 0 min 0 min 0,0 UV-I 0 W/m 0,0 km/h (0 Bft)
07.10.2013 22:16 9,9 C 8,3 C 96 % 1025,9 hPa 0,0 l/m 0 min 0 min 0,0 UV-I 0 W/m 0,0 km/h (0 Bft)
07.10.2013 22:18 9,9 C 8,3 C 96 % 1025,9 hPa 0,0 l/m 0 min 0 min 0,0 UV-I 0 W/m 0,0 km/h (0 Bft)
07.10.2013 22:20 9,8 C 8,3 C 96 % 1025,9 hPa 0,0 l/m 0 min 0 min 0,0 UV-I 0 W/m 0,0 km/h (0 Bft)
07.10.2013 22:22 9,8 C 8,3 C 96 % 1025,9 hPa 0,0 l/m 0 min 0 min 0,0 UV-I 0 W/m 0,0 km/h (0 Bft)
07.10.2013 22:24 9,8 C 8,3 C 96 % 1025,9 hPa 0,0 l/m 0 min 0 min 0,0 UV-I 0 W/m 0,0 km/h (0 Bft)
07.10.2013 22:26 9,8 C 8,3 C 96 % 1025,8 hPa 0,0 l/m 0 min 0 min 0,0 UV-I 0 W/m 0,0 km/h (0 Bft)
07.10.2013 22:28 9,8 C 8,3 C 96 % 1025,8 hPa 0,0 l/m 0 min 0 min 0,0 UV-I 0 W/m 0,0 km/h (0 Bft)
07.10.2013 22:30 9,8 C 8,3 C 96 % 1025,8 hPa 0,0 l/m 0 min 0 min 0,0 UV-I 0 W/m 0,0 km/h (0 Bft)
07.10.2013 22:32 9,8 C 8,3 C 96 % 1025,8 hPa 0,0 l/m 0 min 0 min 0,0 UV-I 0 W/m 0,0 km/h (0 Bft)
07.10.2013 22:34 9,8 C 8,3 C 96 % 1025,8 hPa 0,0 l/m 0 min 0 min 0,0 UV-I 0 W/m 0,0 km/h (0 Bft)
07.10.2013 22:36 9,8 C 8,3 C 96 % 1025,8 hPa 0,0 l/m 0 min 0 min 0,0 UV-I 0 W/m 0,0 km/h (0 Bft)
07.10.2013 22:38 9,8 C 8,3 C 96 % 1025,8 hPa 0,0 l/m 0 min 0 min 0,0 UV-I 0 W/m 0,0 km/h (0 Bft)
07.10.2013 22:40 9,8 C 8,3 C 96 % 1025,9 hPa 0,0 l/m 0 min 0 min 0,0 UV-I 0 W/m 0,0 km/h (0 Bft)
07.10.2013 22:42 9,7 C 8,3 C 97 % 1025,8 hPa 0,0 l/m 0 min 0 min 0,0 UV-I 0 W/m 0,0 km/h (0 Bft)
07.10.2013 22:44 9,7 C 8,3 C 97 % 1025,8 hPa 0,0 l/m 0 min 0 min 0,0 UV-I 0 W/m 0,0 km/h (0 Bft)
07.10.2013 22:46 9,7 C 8,3 C 97 % 1025,8 hPa 0,0 l/m 0 min 0 min 0,0 UV-I 0 W/m 0,0 km/h (0 Bft)
07.10.2013 22:48 9,7 C 8,3 C 97 % 1025,8 hPa 0,0 l/m 0 min 0 min 0,0 UV-I 0 W/m 0,0 km/h (0 Bft)
07.10.2013 22:50 9,7 C 8,3 C 97 % 1025,8 hPa 0,0 l/m 0 min 0 min 0,0 UV-I 0 W/m 0,0 km/h (0 Bft)
07.10.2013 22:52 9,7 C 8,3 C 97 % 1025,8 hPa 0,0 l/m 0 min 0 min 0,0 UV-I 0 W/m 0,0 km/h (0 Bft)
07.10.2013 22:54 9,7 C 8,3 C 97 % 1025,8 hPa 0,0 l/m 0 min 0 min 0,0 UV-I 0 W/m 0,0 km/h (0 Bft)
07.10.2013 22:56 9,7 C 8,3 C 97 % 1025,7 hPa 0,0 l/m 0 min 0 min 0,0 UV-I 0 W/m 0,0 km/h (0 Bft)
07.10.2013 22:58 9,7 C 8,3 C 97 % 1025,7 hPa 0,0 l/m 0 min 0 min 0,0 UV-I 0 W/m 0,0 km/h (0 Bft)
07.10.2013 23:00 9,7 C 8,3 C 97 % 1025,7 hPa 0,0 l/m 0 min 0 min 0,0 UV-I 0 W/m 0,0 km/h (0 Bft)
07.10.2013 23:02 9,7 C 8,3 C 97 % 1025,7 hPa 0,0 l/m 0 min 0 min 0,0 UV-I 0 W/m 0,0 km/h (0 Bft)
07.10.2013 23:06 9,7 C 7,8 C 97 % 1025,7 hPa 0,0 l/m 0 min 0 min 0,0 UV-I 0 W/m 0,0 km/h (0 Bft)
07.10.2013 23:08 9,7 C 7,8 C 97 % 1025,7 hPa 0,0 l/m 0 min 0 min 0,0 UV-I 0 W/m 0,0 km/h (0 Bft)
07.10.2013 23:10 9,6 C 7,8 C 97 % 1025,6 hPa 0,0 l/m 0 min 0 min 0,0 UV-I 0 W/m 0,0 km/h (0 Bft)
07.10.2013 23:12 9,6 C 7,8 C 97 % 1025,6 hPa 0,0 l/m 0 min 0 min 0,0 UV-I 0 W/m 0,0 km/h (0 Bft)
07.10.2013 23:14 9,6 C 8,3 C 97 % 1025,6 hPa 0,0 l/m 0 min 0 min 0,0 UV-I 0 W/m 0,0 km/h (0 Bft)
07.10.2013 23:16 9,6 C 8,3 C 97 % 1025,6 hPa 0,0 l/m 0 min 0 min 0,0 UV-I 0 W/m 0,0 km/h (0 Bft)
07.10.2013 23:18 9,6 C 8,3 C 97 % 1025,6 hPa 0,0 l/m 0 min 0 min 0,0 UV-I 0 W/m 0,0 km/h (0 Bft)
07.10.2013 23:20 9,6 C 8,3 C 97 % 1025,7 hPa 0,0 l/m 0 min 0 min 0,0 UV-I 0 W/m 0,0 km/h (0 Bft)
07.10.2013 23:22 9,5 C 7,8 C 97 % 1025,7 hPa 0,0 l/m 0 min 0 min 0,0 UV-I 0 W/m 0,0 km/h (0 Bft)
07.10.2013 23:24 9,5 C 7,8 C 97 % 1025,7 hPa 0,0 l/m 0 min 0 min 0,0 UV-I 0 W/m 0,0 km/h (0 Bft)
07.10.2013 23:26 9,5 C 7,8 C 97 % 1025,7 hPa 0,0 l/m 0 min 0 min 0,0 UV-I 0 W/m 0,0 km/h (0 Bft)
07.10.2013 23:28 9,5 C 7,8 C 97 % 1025,7 hPa 0,0 l/m 0 min 0 min 0,0 UV-I 0 W/m 0,0 km/h (0 Bft)
07.10.2013 23:30 9,5 C 7,8 C 97 % 1025,7 hPa 0,0 l/m 0 min 0 min 0,0 UV-I 0 W/m 0,0 km/h (0 Bft)
07.10.2013 23:32 9,4 C 7,8 C 97 % 1025,7 hPa 0,0 l/m 0 min 0 min 0,0 UV-I 0 W/m 0,0 km/h (0 Bft)
07.10.2013 23:34 9,4 C 7,8 C 97 % 1025,8 hPa 0,0 l/m 0 min 0 min 0,0 UV-I 0 W/m 0,0 km/h (0 Bft)
07.10.2013 23:36 9,4 C 7,8 C 97 % 1025,8 hPa 0,0 l/m 0 min 0 min 0,0 UV-I 0 W/m 0,0 km/h (0 Bft)
07.10.2013 23:38 9,4 C 7,8 C 97 % 1025,7 hPa 0,0 l/m 0 min 0 min 0,0 UV-I 0 W/m 0,0 km/h (0 Bft)
07.10.2013 23:40 9,4 C 7,8 C 97 % 1025,7 hPa 0,0 l/m 0 min 0 min 0,0 UV-I 0 W/m 0,0 km/h (0 Bft)
07.10.2013 23:42 9,4 C 7,8 C 97 % 1025,8 hPa 0,0 l/m 0 min 0 min 0,0 UV-I 0 W/m 0,0 km/h (0 Bft)
07.10.2013 23:44 9,3 C 7,8 C 97 % 1025,7 hPa 0,0 l/m 0 min 0 min 0,0 UV-I 0 W/m 0,0 km/h (0 Bft)
07.10.2013 23:46 9,3 C 7,8 C 97 % 1025,7 hPa 0,0 l/m 0 min 0 min 0,0 UV-I 0 W/m 0,0 km/h (0 Bft)
07.10.2013 23:48 9,3 C 7,8 C 97 % 1025,8 hPa 0,0 l/m 0 min 0 min 0,0 UV-I 0 W/m 0,0 km/h (0 Bft)
07.10.2013 23:50 9,4 C 8,3 C 97 % 1025,8 hPa 0,0 l/m 0 min 0 min 0,0 UV-I 0 W/m 0,0 km/h (0 Bft)
07.10.2013 23:52 9,4 C 8,3 C 97 % 1025,8 hPa 0,0 l/m 0 min 0 min 0,0 UV-I 0 W/m 0,0 km/h (0 Bft)
07.10.2013 23:54 9,4 C 8,3 C 97 % 1025,8 hPa 0,0 l/m 0 min 0 min 0,0 UV-I 0 W/m 0,0 km/h (0 Bft)
07.10.2013 23:56 9,4 C 8,3 C 97 % 1025,7 hPa 0,0 l/m 0 min 0 min 0,0 UV-I 0 W/m 0,0 km/h (0 Bft)
07.10.2013 23:58 9,4 C 8,3 C 97 % 1025,7 hPa 0,0 l/m 0 min 0 min 0,0 UV-I 0 W/m 0,0 km/h (0 Bft)
_ Min-Zeit 07:46 07:28 14:24 17:06 - - - - - 00:00
Minimum _ 8,7 C 7,2 C 64 % 1024,9 hPa - - - - - 0,0 km/h (0 Bft)
_ Max-Zeit 14:02 15:46 02:02 11:40 00:00 09:40 00:00 13:30 14:48 00:00
Maximum _ 18,4 C 17,8 C 98 % 1027,0 hPa 0,0 l/m 2 min 0 min 1,8 UV-I 501 W/m 0,0 km/h
N-NW (0 Bft)
Durchschnitt _ 12,6 C 11,2 C 88 % 1026,0 hPa #0,0 l/m #4:24 h #0 min. 1,2 UV-I 233 W/m 0,0 km/h (0 Bft)
© 2013 W. Hausmann